GFSNGP_250_rhum_039.txt.gz
RH
44 45 46 66 88 99 100 79 77 84 95 98 96 98 100 100 96 96 92 88 87 85 86 85 81 75 71 61 53 46 41 39 47 36 39 54 52 53 49 42 37 29 20 10
52 52 50 54 55 84 83 95 97 98 100 100 93 98 100 93 86 86 92 90 83 80 85 87 82 68 63 52 41 35 43 38 36 46 53 66 57 55 51 51 43 31 22 13
57 48 44 53 51 51 70 87 96 100 92 100 97 100 100 100 100 98 98 100 99 91 86 78 70 65 51 42 42 38 44 48 56 66 71 62 56 59 55 52 41 32 32 26
71 69 70 54 53 55 66 75 81 85 94 89 89 98 100 100 100 100 100 99 91 82 79 75 69 63 52 45 39 43 54 59 60 71 71 79 68 62 56 49 44 46 42 33
82 84 78 75 75 67 68 75 79 81 72 78 80 92 100 100 100 99 97 96 86 86 78 81 66 54 48 45 46 56 60 62 68 75 72 73 65 58 50 48 52 57 57 55
88 93 94 93 91 86 86 92 85 78 84 84 76 80 100 100 100 100 90 93 94 89 98 67 55 54 54 62 58 61 66 69 71 71 72 73 67 57 55 59 63 64 62 64
81 83 93 95 96 98 100 98 92 92 95 100 100 100 100 99 96 100 100 96 91 96 71 55 54 55 57 60 70 65 69 70 65 68 70 70 69 67 63 66 62 58 65 68
95 80 84 86 93 94 98 94 100 100 98 97 100 100 100 100 100 100 95 98 90 80 72 56 59 56 63 61 70 67 68 75 73 70 68 72 70 68 66 65 57 54 55 57
87 97 82 77 87 96 100 100 100 100 100 100 100 100 100 100 100 96 100 100 87 84 64 59 58 57 65 61 66 65 70 71 70 68 66 68 69 66 66 57 57 59 59 62
85 90 96 89 90 96 99 97 96 99 100 100 100 98 100 100 100 100 100 96 87 84 66 55 56 66 59 62 66 62 63 59 56 61 62 68 70 68 62 62 67 65 66 67
78 85 96 97 96 92 91 91 91 88 90 91 92 90 91 100 100 100 100 97 93 74 60 55 67 69 61 64 59 56 60 60 63 66 69 72 74 73 68 68 69 74 76 82
74 82 89 95 98 97 100 97 96 93 90 98 100 99 100 100 100 100 100 94 90 69 57 72 82 73 64 64 59 51 62 63 66 70 74 77 79 79 79 81 83 86 80 79
74 75 88 92 94 92 93 95 98 94 92 94 92 97 100 100 96 98 97 97 84 67 67 84 77 85 79 68 65 54 61 72 72 78 80 86 90 88 92 92 88 88 79 80
57 77 81 86 96 90 93 93 94 100 98 93 92 91 86 86 87 94 100 94 73 68 76 80 81 86 82 71 71 64 64 76 86 93 93 96 100 100 100 96 90 90 88 89
38 56 82 82 87 88 88 93 99 100 100 96 83 81 77 76 85 92 95 80 74 80 84 83 84 92 82 70 64 74 70 78 90 100 100 100 100 100 100 100 99 100 97 93
35 45 76 82 87 87 86 84 83 97 98 86 84 78 77 77 81 82 79 85 85 92 79 82 84 85 86 83 68 65 76 83 93 96 99 99 99 98 100 100 100 99 96 94
36 37 56 84 86 89 88 65 71 85 89 88 85 77 70 64 65 78 94 100 99 91 92 96 92 90 87 85 78 72 66 79 89 96 96 96 96 99 100 100 100 100 99 94
37 36 35 56 84 88 84 63 63 82 93 94 92 82 76 70 71 81 85 98 95 92 92 96 88 89 92 87 84 80 73 69 76 88 94 94 98 100 99 100 98 94 94 98
32 32 31 33 62 87 91 70 65 78 91 89 91 90 85 81 84 86 90 97 92 87 87 95 92 92 95 91 91 89 80 76 74 74 80 85 87 88 92 98 97 96 100 100
30 31 29 30 35 73 93 87 66 71 81 88 94 91 88 83 84 89 91 93 95 91 84 81 84 95 100 96 93 95 94 86 77 78 81 82 85 96 100 97 98 99 94 93
29 31 32 30 30 35 75 96 88 73 81 84 92 96 94 90 86 86 87 91 93 91 92 88 83 80 85 90 95 100 100 98 94 92 95 91 86 89 91 98 96 93 95 100
31 32 31 30 30 32 36 61 98 97 85 79 86 90 95 98 97 98 97 94 94 94 100 100 100 92 80 83 98 100 100 100 100 100 94 90 92 90 89 93 95 93 95 92
24 29 34 32 29 28 30 35 45 91 99 96 95 96 94 92 90 92 95 96 98 99 100 100 100 97 86 87 98 100 100 100 100 98 96 95 93 91 97 99 93 95 96 97
22 26 29 33 34 33 30 29 32 42 63 95 100 100 100 100 100 98 97 97 100 100 100 100 99 97 94 97 100 100 100 100 100 99 97 93 88 97 100 95 92 94 95 95
24 24 24 26 34 38 40 37 36 40 48 54 68 86 99 100 100 100 100 100 100 100 100 100 100 95 95 96 100 100 100 99 100 97 90 90 95 100 99 96 94 96 100 97
43 45 47 43 36 32 31 36 43 46 51 58 59 61 68 82 93 98 100 100 100 100 100 100 98 95 90 88 86 85 85 85 88 91 93 99 100 100 95 96 99 98 97 92
49 54 57 59 63 60 52 42 37 36 39 47 60 69 75 76 74 77 84 91 97 100 100 100 100 100 99 98 94 92 93 98 100 98 91 84 83 84 89 95 97 94 94 98

GFSNGP_250_rhum_042.txt.gz
RH
34 37 52 51 46 40 41 29 23 22 26 28 41 74 72 97 100 100 100 100 100 100 100 100 100 100 100 100 100 100 93 81 72 68 45 37 37 32 33 35 46 49 55 51
38 29 32 56 55 58 59 55 51 27 22 34 34 46 64 100 100 100 100 100 100 100 100 100 100 98 100 100 97 87 67 57 41 40 41 36 33 39 48 50 54 56 51 53
46 44 43 46 52 65 69 81 81 79 46 60 61 60 71 100 100 100 100 100 100 100 100 100 100 100 95 86 77 64 52 44 43 35 34 32 41 56 56 57 55 48 54 52
49 55 62 40 50 51 64 70 81 79 78 87 63 65 99 100 100 100 100 100 100 100 100 99 95 86 84 75 66 55 53 47 41 36 36 50 54 56 62 61 50 61 57 48
71 67 58 70 65 58 56 60 71 72 84 82 75 78 89 100 100 100 100 97 94 95 89 87 87 87 76 70 59 66 61 49 42 46 48 55 54 59 56 52 60 68 62 53
79 80 89 69 70 66 66 70 74 85 89 89 87 87 90 94 91 88 86 90 95 96 100 98 91 88 70 80 75 59 54 46 52 47 53 57 53 52 58 62 67 68 63 53
60 80 94 80 78 76 87 74 72 72 75 82 90 91 96 99 99 94 91 94 100 100 99 93 86 78 91 76 65 55 50 49 51 47 57 61 55 56 58 63 62 64 56 52
61 62 70 78 83 86 82 75 84 88 90 89 87 92 97 100 94 92 97 99 99 100 100 99 95 97 83 67 53 57 49 50 47 51 55 59 59 59 60 66 68 67 56 59
80 74 64 68 77 88 85 81 82 86 95 100 100 100 100 100 100 100 100 100 100 97 99 97 100 85 69 57 55 53 49 48 46 52 52 51 56 60 61 68 70 72 62 64
80 86 82 76 72 71 82 88 92 96 96 100 100 100 100 100 100 98 100 100 97 97 98 100 92 78 65 57 54 54 52 52 48 47 54 57 61 63 66 72 75 75 66 71
60 81 91 91 93 89 79 86 93 96 97 99 100 100 99 89 78 98 100 100 99 100 100 96 84 82 63 57 62 60 55 55 49 45 59 63 71 73 73 78 81 80 75 81
37 66 86 88 97 99 92 86 88 94 97 90 86 98 100 93 99 84 85 97 100 100 100 100 86 78 65 70 70 67 67 58 54 50 62 75 77 86 92 90 90 90 88 89
35 39 79 91 88 99 100 100 97 91 91 95 92 85 88 90 88 88 94 92 89 100 100 100 87 84 72 79 72 70 69 64 64 59 64 84 88 91 98 99 99 100 99 96
32 33 54 96 95 98 100 99 94 94 99 93 89 86 86 88 89 89 86 94 98 90 96 91 90 83 78 80 73 74 76 70 62 68 68 68 81 93 100 100 100 99 99 100
26 29 34 50 92 96 100 100 100 99 98 98 93 87 84 82 84 86 83 87 91 86 87 90 91 82 86 80 77 76 81 80 72 65 68 74 76 87 92 95 96 97 100 100
26 29 32 36 51 81 97 100 97 98 99 99 100 97 100 100 99 98 95 88 85 84 91 89 90 91 81 80 83 81 81 80 78 74 67 64 67 73 81 92 98 100 98 95
24 29 31 36 38 43 74 100 96 91 90 95 97 100 100 100 100 95 89 85 79 80 79 80 90 95 80 80 81 80 82 82 80 78 76 71 69 68 72 79 88 91 91 91
26 29 33 34 36 37 43 81 100 97 90 92 96 93 90 94 84 83 79 78 82 78 78 89 95 93 81 72 77 82 83 84 86 83 75 76 78 73 74 80 84 85 86 85
24 27 29 32 32 36 37 50 89 98 92 92 95 78 82 85 84 84 77 70 68 68 75 86 94 92 84 74 77 84 91 94 93 94 92 90 89 87 83 82 81 81 83 83
26 28 27 29 31 32 36 38 56 97 97 90 92 75 77 82 85 80 80 82 78 79 86 91 94 89 80 74 77 76 74 74 75 79 88 97 90 87 90 93 88 90 88 82
25 24 26 30 33 35 36 37 38 59 100 98 94 86 82 81 90 92 88 84 81 84 90 94 95 90 79 78 82 78 78 84 90 90 85 89 94 96 93 93 96 95 88 85
25 27 29 30 32 34 34 34 33 34 55 97 97 94 87 90 94 93 88 82 87 96 97 97 91 88 88 89 90 93 95 100 100 100 99 95 94 92 89 91 92 87 86 85
30 32 33 33 31 31 32 32 32 33 34 48 92 99 97 91 95 100 100 97 95 98 100 100 100 100 99 99 100 96 100 100 100 100 98 91 84 84 84 88 95 91 92 94
25 26 28 31 30 31 34 34 33 32 33 35 40 77 97 100 100 98 99 100 100 100 100 100 100 100 100 100 99 93 100 100 100 100 95 91 90 92 97 95 92 95 93 93
23 22 23 23 21 21 24 30 35 34 33 33 34 37 46 79 97 100 100 100 100 100 100 100 100 100 100 100 94 92 96 99 100 100 98 96 95 93 91 92 92 92 96 91
36 35 34 34 32 28 24 23 28 36 39 40 38 36 36 41 50 72 87 93 98 100 100 100 100 100 100 100 100 100 95 90 88 91 91 86 87 84 82 85 87 84 82 89
35 42 49 53 54 55 51 44 36 31 31 33 36 40 40 39 41 46 52 59 69 84 94 98 99 99 100 100 98 96 93 85 79 71 64 64 66 66 69 71 73 81 90 90

GFSNGP_250_rhum_045.txt.gz
RH
31 41 42 38 28 22 22 20 17 16 16 18 17 17 18 20 26 36 44 56 62 72 85 93 93 95 91 80 78 74 76 90 98 100 100 99 92 66 73 70 47 35 31 32
29 25 40 44 42 38 24 20 19 16 17 18 19 21 22 28 31 33 38 46 57 67 90 97 94 100 100 100 100 100 100 100 100 100 99 81 74 58 49 44 33 31 35 43
39 30 30 37 37 41 37 30 24 22 18 21 22 24 25 31 54 69 62 91 100 100 100 100 100 100 100 100 100 100 100 100 100 87 81 70 54 47 42 32 33 41 48 52
47 47 39 32 36 42 43 41 53 41 30 30 24 24 25 30 52 68 89 100 100 100 100 100 100 100 100 100 100 100 100 94 92 77 68 57 53 38 33 40 44 49 52 55
56 55 48 43 42 42 37 38 45 46 48 49 41 29 29 36 33 60 92 100 100 100 100 100 100 100 100 100 100 100 87 94 78 68 64 49 43 37 38 47 50 54 53 65
57 63 56 40 51 54 50 50 46 46 51 54 51 58 49 40 34 43 37 81 97 100 100 100 100 100 100 100 100 93 89 89 89 69 47 47 42 43 46 49 54 54 56 61
79 62 58 56 59 60 59 51 56 54 60 66 68 63 70 79 75 73 85 89 97 100 100 100 100 100 99 96 95 97 100 93 70 60 49 41 44 47 47 48 52 56 57 59
82 81 69 60 76 67 54 58 66 65 68 76 76 81 81 90 100 99 98 97 96 95 90 82 82 81 96 100 100 92 90 81 68 51 44 43 42 45 44 44 49 56 59 58
48 78 81 76 68 75 74 65 66 77 87 80 84 92 96 100 100 99 98 98 96 97 98 97 99 100 100 100 92 95 90 76 57 47 44 43 42 43 47 50 50 54 55 61
37 50 73 85 80 81 80 85 79 72 80 96 96 97 98 100 100 100 100 100 100 100 100 100 100 100 99 96 96 89 83 67 52 51 53 45 45 44 53 57 56 58 63 69
34 35 61 86 86 88 77 81 81 87 82 83 93 100 100 100 100 97 96 95 93 99 100 100 99 98 100 100 98 93 80 63 61 64 60 54 51 48 55 65 68 69 75 80
26 35 38 53 76 91 91 85 90 86 89 95 88 91 97 100 98 98 97 96 97 100 100 100 100 100 100 100 99 95 78 61 70 72 68 57 57 57 56 62 76 82 87 91
29 38 37 37 53 79 98 92 96 97 88 91 96 98 92 96 93 87 90 95 96 91 88 95 94 100 100 100 94 86 80 71 83 75 77 71 62 60 67 69 70 78 84 88
29 44 39 38 39 52 88 99 96 94 97 96 97 94 98 95 90 88 84 87 94 94 99 93 79 83 91 95 86 90 85 87 88 79 80 79 73 66 63 64 69 75 82 90
16 23 32 38 37 42 52 82 98 100 98 100 99 100 98 96 95 87 80 78 83 87 87 93 98 100 97 83 91 90 96 95 87 80 82 88 80 72 71 70 67 66 67 70
14 16 22 33 38 39 38 44 80 94 100 100 100 100 100 100 95 90 87 84 87 87 90 91 92 83 86 88 91 99 100 99 88 85 79 87 85 74 72 74 73 72 70 70
12 17 20 27 30 34 36 39 40 69 91 97 100 100 100 100 100 100 95 88 88 90 91 89 85 82 80 90 94 96 100 95 94 91 79 78 84 83 80 82 82 85 89 90
16 20 22 27 33 37 37 37 42 43 57 93 98 98 100 100 98 100 100 100 98 100 99 94 87 86 85 83 81 89 97 97 96 89 81 80 84 85 84 79 74 77 85 87
18 23 24 26 30 33 37 38 37 39 40 46 77 97 92 95 96 97 100 100 98 95 90 86 87 85 79 78 81 93 96 97 93 85 79 73 74 80 84 90 90 84 83 93
16 21 25 28 32 34 35 37 36 35 39 38 39 62 88 87 92 100 100 99 92 93 83 80 80 75 73 70 76 89 94 100 97 88 82 79 84 94 100 91 82 82 83 84
16 22 24 27 31 34 33 31 32 35 38 40 41 40 57 86 87 93 100 95 86 92 83 81 81 78 78 76 81 91 98 98 98 92 90 96 100 100 97 81 81 84 86 90
20 25 29 31 30 30 29 30 34 40 44 45 43 40 38 51 81 89 98 99 90 91 88 90 94 97 100 100 100 100 100 100 98 97 100 100 100 96 85 82 81 87 98 99
19 25 29 30 30 30 32 34 38 42 41 39 38 37 37 35 48 82 90 100 97 93 94 99 100 100 100 100 100 100 100 100 96 98 100 100 94 90 90 89 96 100 97 95
21 24 28 31 33 35 37 38 36 35 35 36 34 35 36 34 35 44 81 96 100 100 100 100 100 100 100 100 100 100 100 100 93 100 100 96 98 100 100 100 98 97 98 99
25 25 27 29 30 27 29 32 35 36 36 36 36 34 33 34 35 35 38 60 87 99 100 100 100 100 100 100 100 100 100 100 98 94 94 90 88 92 91 93 94 92 88 82
28 30 29 26 25 25 25 26 27 27 26 26 30 34 37 36 36 36 36 37 42 59 79 93 99 100 100 100 100 99 99 97 95 92 87 84 81 76 74 68 64 57 51 48
29 30 31 30 31 32 30 31 31 30 30 29 27 29 35 39 40 40 39 37 37 38 41 51 66 80 89 93 95 95 94 92 88 84 82 79 71 59 53 50 52 55 53 50

GFSNGP_250_rhum_051.txt.gz
RH
40 37 37 33 27 25 27 21 20 18 17 15 16 17 18 17 17 15 15 15 14 14 14 14 14 15 18 20 21 28 45 72 86 98 82 78 86 81 90 98 89 68 44 48
42 40 38 34 30 30 24 25 27 22 22 17 15 14 16 16 16 16 15 15 14 14 14 14 14 17 28 29 22 34 52 69 70 74 67 74 68 82 80 75 55 55 53 58
73 72 57 51 32 32 30 28 24 28 19 19 17 16 16 15 14 14 15 15 15 16 16 16 15 15 17 19 22 29 44 42 45 46 50 79 78 70 68 74 76 67 79 86
76 80 87 70 48 44 41 36 36 28 21 24 21 17 16 16 15 14 15 15 17 20 19 18 17 17 17 19 21 26 33 39 46 56 74 79 79 80 81 93 100 99 96 76
60 70 66 62 69 71 63 34 37 42 30 33 30 24 20 17 17 18 19 20 21 22 21 20 19 20 23 29 34 38 39 47 82 76 80 85 81 98 100 100 100 100 86 62
35 48 59 62 60 68 65 53 56 46 50 48 45 41 24 24 25 22 22 21 22 22 22 23 23 28 29 33 38 52 85 100 99 86 83 100 100 100 100 100 100 82 75 67
28 33 34 53 60 55 67 69 66 65 57 49 48 57 69 46 36 34 28 24 23 23 23 24 29 35 42 60 81 93 98 96 93 100 100 100 100 100 98 94 100 90 61 58
32 32 33 39 53 62 59 69 79 72 63 54 48 54 64 58 58 57 56 47 40 38 35 34 45 57 73 100 100 100 92 100 100 100 100 100 100 96 96 100 88 79 57 55
34 29 30 38 49 62 71 63 66 80 83 74 62 58 57 60 70 76 80 82 82 64 54 53 60 63 61 75 91 99 86 100 100 100 100 100 100 100 94 94 99 70 58 52
39 34 30 31 36 48 65 80 69 67 85 93 85 77 65 69 72 86 94 95 94 95 95 93 85 82 88 98 100 100 100 100 100 100 100 100 100 96 100 98 86 70 59 56
35 28 35 38 36 42 51 70 91 88 84 86 96 100 96 78 78 88 96 96 96 99 98 97 100 100 100 100 100 100 100 100 100 100 100 100 100 99 100 90 77 71 58 69
40 42 42 39 37 34 33 42 70 94 97 98 96 93 97 100 92 93 97 96 97 92 94 97 98 100 100 100 100 100 100 100 100 100 100 100 100 100 97 93 75 72 69 78
27 32 42 56 51 35 32 38 36 54 81 96 98 98 98 99 98 99 99 96 96 98 98 99 100 100 98 100 100 100 99 98 100 100 100 100 100 100 100 80 77 76 77 82
28 39 39 43 53 53 46 44 44 41 52 74 93 97 98 100 99 98 100 100 100 100 97 99 100 99 97 100 100 100 100 100 99 100 100 98 96 91 80 84 83 84 81 81
24 31 35 20 23 40 36 41 43 51 49 48 67 92 98 99 100 100 98 99 100 100 100 100 100 100 100 100 96 95 100 100 100 100 100 99 100 100 91 97 94 89 89 87
20 18 16 13 12 18 24 34 36 35 48 52 50 60 83 96 98 96 98 100 100 100 100 100 96 93 99 100 100 100 100 99 97 95 97 95 94 100 94 90 95 89 88 89
15 14 12 14 18 19 20 28 34 34 43 49 53 59 60 70 90 97 98 98 100 100 99 100 100 100 100 100 100 100 100 97 98 97 91 92 96 100 100 100 100 95 90 90
12 13 12 13 15 16 17 20 30 34 37 48 52 49 54 60 61 78 96 99 100 100 100 100 100 99 98 98 98 98 99 99 100 98 99 100 100 100 100 98 93 85 76 82
12 12 11 11 12 12 20 25 30 34 34 38 44 48 48 50 49 49 57 82 98 97 100 100 100 100 100 100 100 100 100 100 100 100 99 98 100 98 94 91 89 82 81 92
14 12 11 10 12 14 19 21 25 29 36 41 47 51 48 52 47 46 45 55 63 83 97 99 100 100 100 100 100 100 100 100 100 100 100 100 99 92 93 92 84 88 95 95
16 14 12 8 8 13 19 25 26 27 34 39 42 44 43 52 53 44 42 43 50 52 52 65 86 91 96 98 100 100 100 99 98 98 100 100 100 99 98 88 85 97 99 98
16 18 16 11 8 8 16 24 26 26 29 34 36 41 47 44 48 44 45 41 45 47 43 43 44 52 75 90 93 92 94 98 100 100 99 99 98 96 93 88 95 99 99 90
16 18 19 15 12 8 9 17 24 28 30 32 35 41 37 42 47 50 46 47 46 42 37 34 37 40 42 44 69 89 90 91 97 99 97 96 94 90 90 92 93 90 84 84
15 19 20 20 17 14 10 11 16 23 28 31 33 36 40 41 43 45 45 44 41 37 34 32 33 37 39 41 41 61 92 95 97 99 96 93 94 94 94 92 94 94 91 92
13 15 22 23 21 17 15 15 16 21 26 31 35 38 41 41 40 40 41 39 35 34 33 33 33 33 35 37 38 39 47 80 96 97 97 99 100 100 98 96 96 97 90 86
13 14 16 23 25 23 22 19 18 20 24 28 32 34 38 39 37 34 33 33 32 34 35 34 33 33 33 34 36 38 40 40 47 70 92 98 99 100 97 94 89 79 68 59
10 13 15 18 24 26 26 27 26 24 25 27 28 30 30 30 31 33 34 32 30 29 28 29 31 32 34 35 36 35 36 39 41 42 43 46 49 52 55 56 53 49 48 48

GFSNGP_250_rhum_054.txt.gz
RH
31 29 31 33 30 28 28 24 23 22 21 19 19 20 21 22 22 22 22 20 18 18 18 19 23 22 18 16 16 16 16 16 17 19 19 20 22 27 40 49 58 60 76 82
35 34 38 38 34 30 28 25 27 23 28 19 18 19 18 20 21 21 20 20 20 20 18 17 17 17 16 16 18 21 19 17 19 19 20 28 45 62 80 96 71 81 81 83
68 55 43 57 34 34 42 36 29 34 25 22 21 20 17 16 16 17 18 18 19 19 18 18 17 17 17 18 18 18 17 17 18 20 20 22 47 81 90 98 65 94 76 87
74 91 99 86 55 58 59 44 37 44 30 29 26 24 21 20 18 17 16 16 17 18 18 18 18 18 18 19 18 18 19 19 18 18 21 38 55 69 72 79 69 68 100 100
57 74 91 90 91 85 87 53 62 73 42 41 44 40 30 20 19 20 20 18 18 18 18 19 19 19 20 21 22 22 21 21 21 20 24 39 51 69 66 68 99 100 84 85
38 40 50 45 67 86 80 72 78 70 51 45 41 46 22 38 35 23 22 22 20 19 18 18 19 20 20 22 25 26 27 26 25 26 42 100 93 77 100 100 100 93 100 100
32 41 32 39 45 52 70 72 69 68 63 57 51 42 36 51 46 37 36 30 28 23 21 20 20 22 24 26 26 27 32 34 51 69 80 82 86 100 100 100 100 100 100 100
37 38 28 33 30 38 46 70 74 70 65 59 53 50 49 45 47 47 45 52 49 36 29 28 27 26 26 27 29 34 41 56 65 72 93 100 100 100 100 100 99 100 100 100
30 31 29 36 37 33 37 47 68 73 65 73 72 69 67 62 62 56 56 54 71 73 59 49 38 38 39 36 40 68 61 74 70 98 100 100 100 96 98 96 100 100 100 100
38 34 37 35 34 38 46 45 50 71 79 67 77 80 79 74 68 69 68 72 68 84 93 91 83 66 60 57 69 75 81 82 99 100 100 100 94 100 100 100 100 100 100 100
36 26 34 34 34 37 39 38 41 55 66 79 76 84 88 84 79 83 86 83 87 88 88 90 89 87 83 84 83 82 87 90 89 94 100 100 100 100 100 100 100 100 100 100
36 36 38 32 42 56 54 43 44 48 55 68 76 77 84 96 92 89 88 89 94 94 91 89 88 91 91 85 82 83 75 78 88 96 99 100 100 100 100 100 92 100 100 100
26 28 37 36 26 35 64 58 67 54 50 52 80 92 83 82 91 90 88 89 95 95 95 95 98 100 100 97 94 92 96 99 94 96 100 100 100 100 99 100 100 100 100 100
26 31 31 32 36 30 34 51 50 64 61 53 50 77 95 97 89 87 92 92 95 96 96 98 98 100 100 97 100 100 100 100 100 100 100 100 100 100 100 100 100 98 98 85
21 25 34 32 22 23 18 31 38 42 52 58 54 46 61 91 99 98 92 94 95 95 97 100 98 93 97 99 100 100 100 100 100 100 100 99 99 100 100 100 100 97 97 95
18 18 19 18 17 16 14 14 22 26 37 44 50 48 45 53 70 96 100 98 96 98 99 99 96 93 100 99 98 97 96 97 97 99 100 100 100 100 100 100 100 96 92 95
16 16 15 14 14 16 11 14 23 24 23 34 43 47 56 52 51 57 89 100 100 100 100 100 100 100 96 92 94 97 100 100 100 100 100 100 100 100 100 100 100 98 96 96
15 16 15 13 12 14 14 16 20 22 25 26 41 45 50 54 55 58 57 63 84 100 100 100 100 100 99 98 98 99 95 94 95 95 95 92 88 91 95 97 100 100 96 96
12 14 15 13 14 16 15 13 15 21 23 25 32 47 52 53 53 57 60 61 59 63 77 96 100 100 100 100 100 99 96 96 100 100 100 100 98 94 93 98 100 94 93 92
11 12 14 15 15 16 12 12 15 17 23 27 29 37 48 55 54 53 59 60 63 59 58 60 64 81 96 100 100 100 100 97 95 96 100 100 100 100 99 99 97 94 93 92
11 11 12 14 17 16 12 10 13 26 33 34 37 38 45 50 52 55 54 54 62 62 57 54 58 62 64 61 72 88 92 95 100 99 97 98 100 100 100 100 100 100 96 97
10 10 11 14 16 19 14 10 9 23 31 28 29 35 43 47 46 49 48 48 50 53 56 55 49 49 55 55 50 45 42 58 81 92 96 100 100 100 100 100 99 96 95 99
8 10 11 12 15 19 19 14 9 11 26 34 34 37 40 42 44 47 49 49 41 45 44 42 45 44 45 45 38 37 38 40 41 44 56 77 97 100 100 100 100 100 100 100
8 8 10 12 14 17 20 19 14 10 10 20 28 32 35 36 39 39 44 43 50 47 48 42 40 38 40 39 35 34 37 40 42 43 42 42 46 72 96 100 100 100 100 98
5 7 8 10 12 14 19 21 20 17 12 11 16 26 33 35 36 40 43 49 49 51 46 42 43 42 37 34 33 33 37 39 40 42 43 44 45 48 66 92 96 93 96 99
4 6 7 8 11 12 15 20 22 23 20 16 13 14 18 24 31 38 42 45 45 42 42 43 41 35 32 32 32 35 36 35 36 39 39 39 41 44 48 52 61 69 69 65
3 4 5 6 8 12 13 16 22 23 24 24 21 20 20 22 25 28 31 35 37 40 41 36 33 34 34 33 30 29 30 33 37 40 40 41 41 40 40 41 45 47 46 45

GFSNGP_250_rhum_057.txt.gz
RH
28 32 34 41 40 40 42 44 37 34 36 26 28 24 22 23 21 21 21 22 22 23 23 24 25 24 22 22 25 30 34 38 31 31 29 27 31 42 39 33 24 22 22 20
25 28 31 34 32 30 31 32 33 30 36 25 24 23 23 20 21 21 20 19 18 19 20 20 21 20 20 20 19 18 18 16 17 18 18 18 18 18 17 19 22 27 28 83
36 29 30 32 26 28 30 31 35 38 34 26 28 29 26 23 22 21 20 20 20 19 19 19 20 20 20 20 19 19 18 17 18 16 16 16 17 18 20 31 62 76 32 57
48 63 62 45 34 33 33 26 29 35 32 28 26 29 29 26 23 22 22 21 20 20 20 21 20 20 20 20 20 20 19 19 20 19 20 21 21 21 21 24 28 27 35 58
41 47 58 60 61 64 64 54 57 50 35 26 26 32 30 25 31 29 25 26 24 22 20 20 20 20 20 19 20 20 20 21 22 21 22 23 23 24 24 24 30 40 65 94
45 48 47 50 58 66 67 72 71 68 62 53 40 38 23 26 35 39 30 23 24 24 22 21 20 19 20 20 20 20 22 23 23 24 26 27 28 26 27 35 59 62 70 70
44 44 29 36 37 37 34 43 52 60 71 70 66 64 38 35 41 38 38 39 36 34 28 23 21 21 21 21 22 22 22 23 24 26 27 29 30 32 43 45 54 97 96 84
27 29 28 29 31 33 39 35 32 36 39 51 67 69 56 50 46 42 39 39 47 51 55 40 31 24 22 22 22 22 23 24 27 29 32 41 51 68 72 88 100 91 98 100
31 29 32 32 40 42 34 33 32 33 37 43 56 71 69 58 48 42 46 47 48 48 62 67 61 49 37 31 28 28 28 31 36 35 41 52 66 75 80 92 95 99 100 100
43 37 36 37 42 47 43 35 31 31 35 36 42 59 71 68 65 55 53 56 54 50 56 85 84 78 64 57 41 43 52 49 44 51 60 69 87 84 84 97 100 100 100 100
48 50 53 45 42 51 62 70 63 56 44 40 42 49 68 72 71 76 71 68 64 65 66 74 89 88 83 78 68 66 69 57 57 69 92 100 94 99 98 100 100 100 99 97
36 46 64 37 48 57 58 62 71 68 62 56 48 47 53 75 83 77 79 80 75 72 76 75 78 85 88 88 90 87 83 87 90 89 83 82 82 90 100 100 100 100 100 100
31 35 42 40 33 36 58 57 68 80 79 74 66 54 49 53 77 89 84 83 90 87 77 78 78 82 92 95 99 100 100 100 100 100 100 100 100 98 95 96 97 100 100 100
25 28 30 37 37 25 33 43 58 62 55 70 67 58 60 53 56 86 95 94 91 91 88 84 81 76 78 91 99 99 90 93 98 100 100 100 99 100 100 100 100 100 100 100
16 20 23 24 23 25 24 30 30 37 43 41 56 62 57 62 58 63 86 91 95 94 94 93 86 85 94 92 94 96 88 91 100 99 100 100 100 100 100 100 100 100 100 98
14 16 18 22 25 23 20 17 23 22 22 25 28 37 56 57 65 62 76 87 90 97 99 98 94 95 97 96 94 91 89 89 96 100 100 100 100 100 99 100 100 100 97 98
12 12 15 17 17 18 14 12 13 16 18 23 26 26 29 50 59 69 65 73 87 92 99 98 98 100 100 100 100 100 100 98 98 97 98 99 100 100 100 100 100 98 97 96
12 12 12 13 13 14 12 11 12 14 16 15 19 34 31 41 49 64 69 68 66 71 89 93 100 100 100 100 100 100 99 96 97 96 95 96 97 98 96 96 97 97 98 97
10 10 11 12 13 14 12 12 12 12 14 13 17 22 24 33 44 58 67 80 79 72 73 76 85 96 100 100 100 100 100 100 98 97 96 95 96 99 100 99 99 100 100 97
7 8 9 10 12 12 11 11 12 13 15 15 18 22 22 27 36 49 69 73 79 77 75 78 78 80 80 82 92 100 100 100 100 100 96 92 91 96 99 100 98 97 95 96
6 5 6 8 10 11 11 11 12 14 14 13 16 24 26 29 37 43 56 68 71 79 83 79 75 75 76 77 80 82 81 77 74 78 85 92 95 93 92 92 96 99 99 99
5 4 4 5 7 10 9 11 11 13 15 12 14 25 28 32 38 41 46 53 61 65 67 70 70 72 74 76 80 76 69 66 69 66 56 50 48 49 58 76 93 100 100 100
4 3 4 4 4 8 8 10 11 13 15 12 11 19 22 26 32 40 47 52 56 64 64 62 62 57 59 61 67 67 56 50 53 51 46 42 42 41 40 42 45 48 57 71
3 3 3 4 4 4 7 8 11 12 15 15 11 15 20 26 32 37 39 44 47 47 52 54 56 60 68 66 57 53 42 39 41 40 38 39 38 39 38 37 38 43 45 48
3 3 3 3 4 4 5 7 8 11 13 15 14 10 14 18 23 30 36 38 40 46 47 46 48 49 57 59 58 51 44 44 40 38 36 36 36 38 38 39 41 43 46 46
3 3 3 3 3 4 4 6 7 9 11 14 17 15 12 12 16 19 24 31 35 44 48 50 52 54 56 59 60 52 49 46 40 36 34 35 38 39 40 41 42 42 45 48
3 3 3 3 3 3 4 5 6 7 10 12 16 17 17 16 13 13 15 20 27 33 36 44 49 52 56 54 50 49 46 42 37 31 31 30 29 31 35 39 42 44 46 48

GFSNGP_250_rhum_060.txt.gz
RH
31 38 51 48 43 49 60 53 64 54 55 29 34 31 29 22 19 21 21 22 20 20 20 22 24 27 27 26 27 34 28 26 28 25 18 17 17 21 31 34 35 33 40 44
26 29 36 42 44 45 40 31 29 28 38 26 26 28 27 25 24 22 19 18 18 18 20 21 22 24 26 26 26 24 23 23 26 33 46 35 24 26 25 19 23 31 19 23
29 27 28 40 38 40 42 39 43 48 43 31 34 32 30 27 23 21 20 20 20 20 19 19 19 20 21 22 23 23 24 23 23 22 22 22 24 23 22 23 23 25 23 21
42 41 33 26 29 34 32 33 37 37 33 31 33 34 33 30 30 28 25 24 24 23 21 20 19 19 18 18 19 21 22 22 23 24 24 24 23 22 22 21 22 22 23 21
28 34 37 34 40 58 58 54 45 45 46 40 42 42 33 40 32 28 30 29 28 26 24 22 19 18 18 17 18 18 19 20 22 24 25 26 27 27 26 24 26 26 26 24
30 28 32 38 43 46 45 69 84 81 71 62 63 62 39 40 39 38 38 36 31 30 29 28 27 25 24 22 20 18 18 19 22 23 24 25 26 26 26 28 26 27 25 26
29 29 32 46 65 59 45 53 50 50 58 58 48 56 55 60 61 58 49 41 39 36 33 42 39 32 28 25 23 21 20 20 20 22 23 23 24 25 27 26 26 26 28 32
25 28 30 36 47 55 66 57 45 48 47 44 45 40 41 41 63 63 60 63 45 38 40 40 54 42 34 30 26 24 22 22 22 22 22 23 24 25 26 26 29 31 32 39
25 27 29 32 34 39 46 55 52 39 39 36 35 35 36 43 59 63 60 59 57 50 43 33 45 50 49 41 32 28 25 24 24 24 24 25 25 26 27 32 38 46 54 77
22 25 28 30 33 39 48 44 47 50 41 40 37 41 39 38 46 59 66 64 67 62 56 48 48 56 68 62 56 44 40 34 31 32 36 38 42 45 46 49 70 81 88 93
20 24 28 28 32 38 37 41 40 44 45 39 42 37 38 39 47 55 65 67 73 74 66 66 63 56 66 74 74 68 61 56 45 42 42 43 51 63 72 76 80 93 96 88
17 23 25 22 33 41 38 41 44 43 44 54 59 59 56 45 43 43 56 75 78 88 86 79 73 69 74 77 77 73 81 85 82 81 79 82 80 79 73 80 83 95 100 98
22 21 25 24 23 31 43 46 54 65 70 56 55 60 60 60 51 50 51 54 80 86 93 93 90 82 88 80 88 90 87 90 91 94 94 92 90 92 96 100 99 96 98 99
22 24 24 25 23 21 30 36 41 48 52 63 51 50 60 60 59 54 49 57 63 80 89 93 94 97 96 89 88 95 99 100 97 89 100 96 98 98 100 100 100 99 100 100
17 19 23 22 19 19 20 26 32 31 31 37 42 40 44 49 50 59 58 52 58 67 80 90 90 94 98 97 95 94 96 100 100 95 91 100 100 98 95 91 89 93 97 94
16 14 16 18 21 20 17 17 19 20 24 24 25 27 27 28 34 43 58 58 50 53 73 86 88 98 92 91 95 99 99 98 97 96 94 93 98 100 100 97 95 90 92 94
20 15 12 11 14 16 17 18 17 15 14 14 14 16 20 24 23 25 33 58 61 58 59 77 84 92 100 98 97 97 99 100 100 100 99 95 93 96 100 100 100 100 99 98
23 16 13 10 8 9 13 14 15 15 14 11 10 15 16 17 21 23 32 38 57 66 63 63 77 83 90 98 100 100 100 100 100 100 100 100 100 100 100 100 99 98 96 96
24 18 12 10 8 7 6 8 11 14 13 12 12 14 14 14 16 18 24 36 42 59 70 74 74 79 82 87 91 99 100 100 100 99 100 100 100 100 100 100 99 100 98 97
17 15 11 8 7 6 6 6 7 10 10 11 12 13 13 14 17 17 18 30 42 54 74 77 81 81 82 84 85 88 91 94 96 100 100 97 95 93 87 86 88 88 85 84
12 10 7 6 5 5 5 5 6 8 8 10 11 12 14 14 17 21 20 21 31 42 61 75 82 82 82 82 80 83 86 83 83 86 86 91 93 87 78 70 65 61 60 68
7 6 5 4 4 3 4 4 4 6 7 8 10 11 12 14 17 23 24 26 30 42 50 60 76 86 87 86 86 86 85 89 92 90 88 87 82 75 68 65 58 50 45 46
5 4 3 3 3 3 3 3 3 4 6 7 9 11 11 14 14 20 23 25 30 38 45 51 62 77 86 87 87 89 88 89 87 85 85 80 75 63 60 58 52 46 44 42
4 3 3 3 3 3 3 3 3 4 4 6 8 10 11 14 14 14 20 23 28 35 43 49 53 59 69 75 80 81 80 81 81 81 77 68 55 48 42 39 39 39 37 36
3 2 2 2 3 3 3 3 3 3 4 5 7 8 10 14 14 14 14 18 25 32 39 45 52 57 62 65 68 70 71 73 74 71 64 56 51 42 40 40 39 36 33 32
2 2 2 2 2 3 3 3 3 3 3 4 6 8 9 12 14 14 14 14 16 22 29 36 41 46 53 60 59 57 59 60 67 63 55 49 47 44 46 37 30 29 31 34
3 2 2 2 2 3 3 3 3 3 3 4 5 7 8 11 14 16 14 13 14 17 22 28 34 38 43 47 48 53 57 61 62 56 46 46 45 43 38 30 25 22 23 26

GFSNGP_250_rhum_063.txt.gz
RH
31 39 40 46 49 54 59 55 58 51 47 30 33 27 27 24 22 19 18 18 18 20 20 20 20 21 22 23 26 28 28 28 28 26 23 24 25 25 26 30 30 32 28 30
22 27 39 45 43 45 46 45 54 46 47 37 36 40 34 26 24 22 20 19 19 20 19 18 18 19 21 22 23 25 25 25 26 28 29 31 31 34 23 22 21 22 19 22
23 27 34 41 41 43 47 43 46 50 43 31 34 31 34 31 31 29 25 21 20 20 19 18 18 19 18 17 17 18 18 19 21 22 24 26 29 29 28 31 39 62 66 40
24 26 25 27 30 45 53 52 52 52 54 45 38 40 36 42 46 45 36 30 26 25 23 21 19 19 18 17 17 17 17 18 19 20 22 23 25 27 27 26 26 27 26 27
20 22 32 34 31 32 34 43 47 58 65 62 57 48 35 42 46 42 39 37 36 34 32 30 26 24 22 21 21 20 18 18 19 19 20 20 21 23 24 25 25 26 26 26
24 22 21 36 39 51 54 58 62 54 52 49 48 46 38 46 42 42 40 40 44 40 36 32 30 28 26 25 24 23 21 19 18 20 21 21 22 23 24 24 25 27 28 28
21 25 28 46 40 36 33 58 70 70 74 83 76 72 60 66 70 68 58 52 47 47 44 39 37 34 33 29 26 24 22 21 20 20 20 20 21 22 23 25 28 29 31 30
16 21 29 31 34 33 38 45 53 48 53 56 55 51 56 48 49 61 75 78 73 62 55 48 48 40 50 46 37 30 28 26 22 22 21 20 20 19 20 21 24 26 28 29
18 17 18 23 27 29 32 40 45 43 41 42 43 47 44 50 39 36 38 45 53 67 64 64 63 55 46 56 58 51 49 37 28 26 25 23 24 24 24 24 25 25 27 29
22 21 22 23 25 32 35 35 37 43 41 48 44 35 41 45 42 40 37 38 46 53 64 64 63 66 67 61 60 57 63 56 46 44 37 32 28 28 27 30 31 31 34 36
24 22 21 21 24 27 32 36 40 40 47 43 48 43 45 48 45 43 42 45 47 50 63 73 68 71 72 69 71 71 75 68 66 60 48 45 48 40 39 40 47 52 60 72
24 24 22 19 21 24 28 32 42 44 44 54 54 48 48 53 52 50 45 45 48 51 63 79 78 80 77 68 68 70 68 76 79 83 81 78 74 70 72 73 74 83 88 91
26 23 21 22 20 19 23 27 28 36 45 41 50 60 48 53 54 58 54 50 51 53 58 70 82 82 83 81 83 86 85 79 85 92 91 91 92 91 91 83 83 90 97 98
46 64 29 25 22 21 18 20 24 28 34 45 44 51 58 52 49 55 51 53 56 55 53 60 83 85 84 83 83 89 87 92 94 99 99 97 98 100 99 98 96 91 90 92
62 55 38 26 24 24 22 19 16 19 22 26 35 40 48 54 46 38 43 48 47 49 58 61 66 80 91 82 79 86 95 96 97 97 98 98 96 95 98 100 100 100 100 100
58 62 45 22 22 19 18 19 20 16 15 17 19 21 23 25 24 29 34 32 39 43 48 59 65 61 81 84 86 89 90 96 100 100 98 98 98 96 96 100 100 100 100 99
51 56 50 34 13 16 19 16 14 13 12 12 15 16 15 16 19 22 25 28 24 26 41 44 54 68 68 78 83 87 94 91 96 100 98 100 100 100 100 100 100 100 100 100
47 47 40 27 16 11 9 11 11 11 10 9 9 12 14 14 14 12 17 25 30 25 26 39 46 55 70 71 76 84 86 97 100 99 100 100 99 100 100 100 100 98 98 99
39 33 29 22 13 10 9 7 6 5 6 8 8 8 9 10 12 12 18 21 17 18 21 28 39 53 62 78 78 77 82 88 94 100 100 100 100 100 96 96 100 100 98 95
42 28 20 15 8 7 6 5 5 4 4 5 6 7 7 8 10 12 14 15 14 15 15 20 32 40 58 66 85 89 86 85 89 94 93 95 98 95 97 98 90 90 91 89
35 24 15 8 5 4 4 4 4 3 3 4 4 5 5 7 9 10 12 11 13 15 17 20 32 42 56 72 80 88 88 91 92 91 89 87 84 90 91 86 81 86 85 83
21 17 8 4 4 3 3 3 3 3 3 3 3 4 4 5 9 10 12 12 14 15 16 19 28 42 52 66 86 86 90 90 88 86 87 90 94 90 86 89 87 81 78 78
13 8 4 3 3 2 2 2 2 2 2 2 3 3 4 4 7 10 11 12 15 17 20 24 28 37 52 62 68 82 88 93 93 90 90 90 90 93 87 75 75 75 69 65
7 3 2 2 2 2 2 2 2 2 2 2 3 3 3 3 6 9 10 12 15 17 18 22 29 35 44 56 66 73 81 88 94 95 92 92 90 86 83 79 76 67 65 62
4 2 2 2 2 2 2 2 2 2 2 3 3 3 3 3 4 8 9 11 16 15 15 19 24 31 38 49 61 70 75 81 84 86 93 92 85 81 77 73 66 60 57 56
3 2 2 2 2 2 2 2 2 2 2 3 3 3 3 3 4 7 8 11 16 15 14 16 22 28 36 45 55 62 70 74 75 79 76 77 76 70 68 59 55 53 51 47
2 2 2 2 2 2 2 2 2 2 2 3 3 3 3 3 4 6 8 10 14 16 14 15 17 22 28 37 45 53 63 67 70 70 68 67 63 60 59 60 56 52 40 37

GFSNGP_250_rhum_066.txt.gz
RH
13 14 16 26 30 29 37 36 38 36 32 28 29 29 30 31 26 24 22 23 22 21 18 20 20 23 25 28 30 31 31 30 29 29 28 27 25 23 23 23 21 21 21 22
19 18 19 20 22 30 33 32 38 40 43 34 39 42 39 30 26 24 23 21 19 19 19 21 23 22 21 22 23 25 28 28 28 28 30 30 29 28 26 24 24 24 25 26
30 29 29 29 26 27 29 31 36 39 38 42 42 45 38 36 34 32 29 23 20 19 19 19 22 22 19 17 16 17 18 18 19 19 21 23 24 26 26 28 27 26 26 27
23 33 34 39 43 49 48 48 49 46 42 41 38 34 33 37 37 34 36 35 33 31 29 27 23 23 21 20 18 18 18 19 19 19 19 19 20 20 22 22 22 24 24 25
15 20 31 41 40 44 50 60 61 66 66 63 56 47 43 46 47 52 53 56 51 42 40 34 31 30 29 25 22 21 20 20 20 19 19 19 19 19 19 20 20 20 21 23
24 17 19 38 33 35 44 51 50 47 57 64 61 57 49 46 42 48 57 47 37 39 39 39 37 36 35 33 33 30 27 27 27 24 23 22 21 19 20 19 19 18 19 20
26 27 22 26 24 24 29 48 71 66 61 57 54 52 45 40 43 46 42 48 45 42 42 38 39 37 32 33 35 35 33 31 28 26 26 25 24 22 22 22 22 21 20 20
25 31 29 26 22 20 24 30 43 58 55 60 70 77 86 75 70 81 87 80 77 78 73 66 62 58 48 38 33 30 32 31 28 28 26 22 22 24 24 23 23 23 23 23
28 20 38 37 30 26 26 30 34 36 42 48 47 48 49 53 53 49 58 69 73 73 70 71 74 79 83 79 61 50 42 38 35 39 38 30 33 33 28 25 25 25 26 26
35 36 36 34 30 30 29 25 26 33 40 42 53 44 44 45 46 48 44 40 42 46 44 38 37 42 50 74 80 78 67 62 56 50 49 46 54 46 38 30 32 32 28 28
44 41 40 36 31 29 31 28 26 24 28 36 42 46 47 42 41 41 40 38 39 38 39 40 36 32 37 47 69 74 70 71 73 76 62 63 72 53 58 62 57 55 55 54
38 42 25 25 36 37 27 29 29 29 26 28 36 39 38 45 41 42 48 45 45 45 43 42 42 40 37 42 52 64 67 72 77 81 82 80 82 80 76 76 72 72 76 75
38 34 40 29 28 30 35 25 24 31 29 29 29 43 40 40 43 46 49 48 53 54 53 51 44 42 47 50 50 57 72 84 80 78 86 91 94 93 92 89 90 92 90 84
53 45 44 48 39 32 33 32 21 20 31 30 28 31 33 44 42 41 51 56 52 52 58 64 69 68 56 55 61 55 69 84 90 87 92 93 96 100 99 100 100 97 96 98
75 79 60 43 48 37 25 27 25 16 16 22 27 28 30 32 34 39 39 42 48 52 58 59 57 59 70 73 66 64 64 77 86 92 96 97 99 98 99 100 100 99 100 99
84 86 92 72 57 42 28 22 16 17 13 13 15 19 24 23 23 24 25 29 34 37 37 41 53 60 59 70 83 78 71 72 83 89 89 95 100 100 97 95 96 100 100 100
68 68 63 52 41 28 22 22 16 10 7 9 9 11 13 14 16 18 18 21 24 24 26 30 34 39 45 54 70 84 88 75 80 87 92 93 96 99 100 100 98 94 94 97
66 67 57 50 36 19 13 11 11 10 9 6 6 6 8 10 10 11 13 14 14 17 21 25 26 24 29 40 52 60 76 89 85 87 89 96 99 99 98 99 99 97 95 93
58 72 54 42 21 10 8 7 6 5 6 6 5 4 4 5 7 7 8 8 9 12 15 18 19 20 23 29 36 52 60 67 87 90 87 90 95 99 100 100 100 100 97 94
60 72 52 32 15 6 5 4 4 4 4 4 4 3 3 3 5 5 5 5 6 8 11 14 17 18 18 18 26 34 49 68 75 86 92 93 92 95 98 99 100 100 100 100
76 51 41 19 8 4 4 4 4 3 3 3 3 3 3 3 3 4 4 4 5 7 10 13 13 10 12 15 22 32 36 50 67 82 91 94 95 94 95 95 95 93 89 91
66 36 18 8 4 4 3 3 3 3 3 2 2 2 2 2 2 3 3 4 4 6 9 11 11 11 13 14 16 24 33 42 60 78 80 87 94 97 98 96 95 96 97 98
36 16 6 3 3 3 3 2 2 2 2 2 2 2 2 2 2 2 3 3 4 5 8 10 11 12 12 13 16 21 30 42 57 77 84 86 90 98 100 99 97 97 97 97
18 9 3 2 3 2 2 2 2 2 2 2 2 2 2 2 2 2 3 3 4 5 8 9 11 12 13 16 18 20 27 42 54 68 81 88 90 91 93 94 96 93 95 96
14 5 2 2 2 2 2 2 2 2 2 2 2 2 2 2 2 2 2 3 4 5 7 9 11 13 14 17 19 22 25 38 54 69 75 80 84 85 89 93 94 95 96 94
7 3 2 2 3 3 3 3 2 2 2 2 2 2 2 2 3 3 2 3 3 4 7 10 11 14 15 18 21 23 28 37 48 60 71 78 80 83 87 86 85 86 85 82
5 3 2 3 4 4 4 4 3 2 2 2 2 2 2 2 3 3 3 3 4 5 7 10 11 13 15 18 21 25 30 36 43 49 56 65 74 78 81 88 89 84 80 75

GFSNGP_250_rhum_069.txt.gz
RH
17 16 17 17 21 27 32 25 28 24 25 26 28 28 25 26 28 26 26 24 21 19 20 23 27 30 30 30 30 29 30 31 32 31 31 31 31 30 29 28 28 27 26 26
18 19 21 20 20 23 30 37 38 32 32 28 28 30 32 28 26 28 28 26 24 20 18 18 18 17 19 21 24 28 30 32 35 36 36 35 34 34 34 34 33 33 32 31
18 18 21 24 26 24 21 28 36 36 34 38 40 36 29 27 26 24 24 22 20 18 18 19 19 17 17 18 19 19 20 21 23 25 26 28 28 28 28 29 29 30 30 29
28 24 20 22 27 30 35 36 33 31 34 32 35 32 38 34 32 30 27 26 26 25 24 23 20 21 22 22 21 20 19 18 18 17 18 19 20 21 20 20 20 19 19 18
32 35 31 23 24 32 35 34 36 40 39 40 37 34 39 40 42 40 38 38 37 38 39 41 39 38 37 32 26 23 22 21 19 18 18 17 16 17 17 17 17 18 19 19
32 34 38 39 33 26 25 39 37 42 47 44 40 38 37 42 40 45 51 56 59 60 55 50 46 47 41 39 35 33 30 30 30 31 30 26 23 22 22 21 20 20 19 19
57 46 42 38 35 38 34 32 34 35 45 56 59 60 52 45 41 44 49 52 57 59 55 48 43 42 36 34 33 31 32 32 33 35 34 31 31 29 28 27 26 27 26 25
43 43 55 50 42 37 36 30 30 33 38 44 46 52 62 63 63 64 64 59 52 49 51 48 44 48 46 40 38 37 35 33 34 35 33 30 31 30 30 28 27 27 27 26
46 41 36 40 44 43 41 39 33 28 30 36 45 55 62 68 69 62 58 67 81 87 88 89 88 87 92 90 86 84 77 68 63 59 52 44 43 39 38 32 32 33 32 35
50 36 31 27 29 30 33 30 32 38 30 28 34 35 39 47 51 59 66 66 65 66 76 80 85 83 78 77 75 70 64 58 54 49 55 59 61 60 61 56 53 42 50 55
54 49 58 40 43 36 34 35 24 27 36 32 29 32 38 43 45 48 48 52 59 55 53 56 60 65 61 55 51 46 41 39 40 43 47 59 64 67 69 74 78 67 70 75
50 54 58 42 42 34 34 33 26 20 23 31 35 32 31 35 41 41 40 45 49 49 46 50 52 51 53 51 48 45 40 40 40 42 52 62 64 70 81 84 82 83 83 86
57 55 54 45 40 40 43 38 28 18 17 20 25 31 36 34 33 39 40 40 45 46 45 47 48 51 50 51 54 52 48 44 40 41 54 66 65 74 80 81 82 80 86 90
65 64 62 72 44 52 46 41 27 21 13 15 18 21 25 29 32 30 31 42 45 47 43 43 47 50 47 54 60 68 61 52 48 45 54 70 71 81 86 87 92 91 93 97
60 70 71 66 57 56 50 42 42 19 10 10 14 14 18 20 22 26 24 23 29 36 42 44 47 52 55 54 58 63 70 71 68 60 59 65 76 81 93 96 96 96 96 97
56 67 66 60 51 52 46 38 35 24 13 7 7 9 11 13 17 15 19 22 21 20 26 35 47 58 62 67 65 64 63 67 78 79 72 73 74 86 92 98 99 99 100 99
57 62 63 50 52 51 36 33 21 15 10 7 6 6 5 7 9 11 11 14 18 20 19 18 23 33 47 54 60 61 65 66 69 84 84 82 82 82 90 97 100 100 100 96
63 63 60 39 56 40 24 20 11 6 5 5 6 5 4 4 4 5 7 8 10 12 14 15 15 16 22 33 40 50 50 56 62 73 79 88 85 88 89 91 95 99 99 97
55 62 56 49 38 24 17 11 6 4 4 4 4 4 4 4 3 3 3 5 6 6 8 10 12 12 14 16 22 28 34 39 52 64 72 77 90 89 90 91 93 95 100 100
61 58 51 48 33 15 13 6 4 4 3 3 3 3 3 3 3 3 2 2 3 4 5 6 7 9 11 12 14 17 19 26 31 44 60 68 72 85 93 93 93 94 95 99
58 59 51 32 22 11 7 4 4 4 4 3 3 2 2 2 2 3 3 2 2 3 4 5 5 6 8 10 11 14 16 19 24 32 38 52 62 78 86 93 95 95 94 95
59 50 32 27 12 9 4 3 4 4 4 3 2 2 2 2 2 2 3 3 2 3 3 4 4 5 7 8 10 11 13 13 17 27 34 42 51 70 84 90 94 94 96 99
52 50 28 18 10 7 3 3 4 4 4 4 3 2 2 2 2 2 2 2 2 2 3 3 3 5 6 7 9 11 11 12 14 19 27 35 42 54 74 85 83 90 99 100
47 39 26 8 7 4 3 3 4 4 3 3 3 2 2 2 2 2 2 2 2 3 3 3 3 4 5 7 8 9 10 12 14 17 22 29 41 56 73 76 78 85 93 93
47 26 13 8 4 3 3 3 4 4 3 3 3 3 2 2 2 2 2 2 2 2 3 3 4 4 5 6 9 10 12 13 14 17 19 25 38 55 69 64 74 83 85 83
30 17 7 6 3 3 3 4 4 4 3 3 3 3 3 3 3 2 2 2 3 3 3 3 4 4 5 8 10 11 12 13 15 17 20 29 43 54 65 70 75 78 78 78
22 9 7 4 3 3 4 4 4 4 4 3 4 4 4 4 3 2 2 3 3 3 3 3 4 4 6 9 10 12 14 17 20 22 24 30 40 53 66 75 76 77 78 77

GFSNGP_250_rhum_075.txt.gz
RH
16 14 14 16 19 23 27 27 26 26 25 23 21 18 22 24 26 28 29 30 34 36 32 30 30 30 31 31 32 36 41 43 45 45 42 40 40 41 41 40 41 43 44 43
24 22 24 20 17 18 21 26 30 34 33 30 28 25 24 22 24 25 24 22 20 20 21 24 27 27 26 26 27 27 27 30 34 39 43 44 44 43 43 42 41 40 38 38
38 32 27 28 25 25 23 20 22 27 32 36 36 34 30 25 24 24 23 24 26 26 24 23 21 21 22 21 20 21 21 22 24 26 29 33 36 38 41 42 42 43 44 44
42 42 45 47 39 37 32 24 24 24 19 22 24 30 36 38 35 32 30 28 26 25 25 24 23 24 24 22 20 20 20 19 18 19 20 22 26 30 33 35 37 39 40 39
45 45 39 40 43 47 49 42 42 31 24 28 28 22 24 28 30 36 38 35 33 31 30 28 27 27 27 25 23 24 24 22 21 19 19 20 20 19 19 21 22 21 21 20
52 50 58 50 48 42 50 50 47 47 45 43 37 30 33 26 25 32 32 33 38 38 39 38 36 35 33 32 29 25 24 26 26 25 25 25 24 22 21 20 19 18 18 18
52 59 67 56 49 50 55 59 51 55 49 47 46 47 36 29 30 32 29 33 39 40 41 39 38 42 45 46 47 48 46 46 46 47 44 38 32 29 24 24 25 23 24 27
58 65 66 63 64 62 58 55 58 52 46 44 44 38 40 42 30 23 26 30 32 36 44 45 46 50 56 50 51 56 54 50 45 42 44 41 38 36 33 31 31 29 29 29
70 81 76 74 67 65 69 61 61 53 47 45 37 44 44 37 34 30 20 21 26 29 34 36 42 47 52 48 52 53 50 46 42 40 43 38 37 36 36 35 35 32 31 31
80 85 89 82 75 61 70 62 59 55 58 48 40 39 32 30 28 26 25 16 16 25 36 35 33 35 47 53 55 55 54 49 44 42 41 43 42 41 39 39 37 36 41 49
89 87 90 81 95 71 69 71 69 72 58 51 40 35 28 21 20 19 17 18 14 11 15 29 34 34 41 48 49 52 63 61 62 64 62 62 64 65 64 66 64 61 62 53
94 88 95 92 91 86 81 79 74 73 68 57 38 32 29 19 14 13 11 10 12 11 10 12 21 30 34 40 50 51 59 59 58 59 65 64 64 68 64 57 53 56 53 46
93 94 99 100 94 92 91 87 75 65 56 51 37 34 24 15 11 10 7 7 7 7 8 7 10 18 24 30 36 38 41 52 61 60 61 62 63 65 66 64 61 61 62 52
75 79 90 92 94 79 76 71 78 67 51 39 30 23 17 11 8 7 5 4 5 5 5 5 6 8 14 23 29 33 34 36 42 52 57 59 60 59 63 60 56 56 62 58
70 75 84 80 93 76 79 75 66 54 40 29 23 15 9 6 5 4 4 4 4 4 4 4 5 5 6 13 22 27 31 34 36 41 47 50 53 54 59 58 58 61 70 67
71 68 83 90 81 79 78 78 64 36 32 21 14 8 5 4 4 4 4 4 4 4 4 4 4 4 5 6 11 20 26 30 36 40 43 44 53 58 61 62 66 70 85 83
65 76 78 86 86 74 68 74 39 33 20 14 8 5 4 3 3 3 4 5 6 6 5 4 4 4 4 5 6 9 17 24 28 36 41 47 49 54 60 66 74 78 88 91
69 79 78 86 86 61 67 65 42 24 13 10 6 4 3 3 3 4 4 4 5 6 5 4 4 4 4 4 5 6 9 15 21 31 37 45 55 59 62 68 78 87 89 93
68 70 76 75 74 63 69 52 30 16 9 6 4 3 3 3 4 5 5 4 4 5 4 4 4 4 3 3 4 5 6 9 13 21 32 37 44 59 69 77 83 85 90 94
66 65 69 72 69 62 62 34 23 12 5 4 3 3 3 3 5 5 5 4 4 4 4 3 3 3 3 3 4 4 4 5 8 12 23 33 38 45 63 74 82 80 78 88
68 65 68 61 62 62 38 28 14 7 4 3 3 3 3 4 5 5 4 4 3 4 4 3 2 2 2 3 3 3 4 4 6 9 15 26 32 41 48 60 75 83 86 88
64 69 70 55 55 57 32 16 7 4 3 3 2 3 4 4 5 4 4 4 3 3 4 3 2 2 2 3 3 3 3 4 4 6 10 16 27 34 39 49 60 77 80 85
61 65 65 50 54 50 25 9 6 3 3 2 2 3 4 4 4 5 3 3 3 3 3 3 2 2 2 3 3 3 3 4 4 5 8 11 16 27 35 38 43 54 66 76
60 63 61 53 52 29 16 8 4 3 3 3 3 4 5 4 4 4 4 4 3 4 4 3 3 2 2 2 3 3 3 3 4 5 6 8 11 16 26 35 37 40 49 63
62 56 50 52 42 20 9 6 3 3 3 2 3 5 5 5 4 4 4 4 4 4 4 4 3 2 2 2 3 3 3 3 4 4 5 7 8 12 15 21 28 33 39 52
49 54 51 45 24 15 7 5 3 3 3 3 4 5 5 5 4 4 4 4 4 4 4 3 3 2 2 2 3 3 3 3 4 4 5 6 8 9 13 18 19 21 25 30
49 46 53 40 20 10 6 4 3 3 4 4 4 5 4 4 4 4 4 4 4 4 4 3 2 2 3 3 3 3 3 3 4 4 5 7 8 12 15 16 18 21 25 30

GFSNGP_250_rhum_078.txt.gz
RH
29 31 28 25 22 24 25 26 29 28 27 30 29 28 30 38 44 43 44 45 45 38 36 33 30 28 32 41 50 56 64 77 92 100 100 100 100 100 100 99 95 92 90 98
31 32 35 39 42 42 39 31 29 29 26 24 24 30 26 23 24 26 29 30 28 28 27 29 30 31 26 28 31 38 43 44 46 52 55 70 74 90 100 100 92 91 97 100
40 40 46 47 46 48 45 46 49 43 40 32 28 25 23 23 25 25 26 24 21 21 21 22 25 30 32 33 32 30 32 34 34 37 40 44 47 50 50 49 47 45 44 44
43 46 48 49 46 46 49 52 49 50 50 45 47 47 42 34 27 24 27 29 27 24 23 23 20 21 24 25 27 30 29 32 32 31 30 31 32 33 34 34 34 33 34 35
54 50 56 58 52 55 50 46 41 50 48 53 55 50 50 48 45 40 34 26 24 28 29 28 26 24 22 20 20 20 20 21 22 23 22 23 24 24 23 23 23 24 24 24
62 66 66 61 63 59 56 56 58 50 52 51 54 56 48 48 47 43 37 35 34 30 22 24 24 26 28 25 23 22 22 20 20 21 22 22 22 22 21 21 21 21 21 21
66 69 77 73 62 74 79 74 74 70 65 63 53 40 43 43 38 37 36 36 32 30 30 31 26 23 28 30 29 30 28 25 22 22 23 24 22 23 24 24 24 24 23 22
69 68 72 71 75 79 86 79 77 82 77 61 51 46 42 39 33 35 39 33 32 32 25 23 23 27 28 27 29 32 31 32 34 34 37 40 39 36 34 34 31 29 26 23
70 65 72 82 78 82 85 75 83 82 86 79 72 56 53 44 32 30 24 24 27 26 25 22 18 17 22 29 30 32 37 42 40 41 44 45 48 50 49 44 40 35 33 28
70 65 73 80 88 84 95 98 89 99 95 86 73 61 54 47 39 27 24 20 15 15 17 16 15 15 15 17 22 31 35 40 47 48 50 52 53 58 63 61 51 44 42 38
69 65 72 86 82 89 83 87 92 100 95 87 68 56 53 37 34 25 20 16 12 10 10 11 12 11 11 14 16 16 24 35 38 41 43 47 52 57 63 60 54 48 42 42
64 79 78 85 81 94 96 89 100 100 96 88 66 53 47 34 28 20 14 10 9 8 7 7 7 9 8 9 12 13 14 18 26 36 43 43 46 49 55 61 64 63 63 58
70 77 73 81 73 82 100 88 100 99 91 72 57 48 34 25 20 11 7 6 6 5 4 4 4 4 4 5 6 10 11 12 15 25 37 44 43 46 54 61 68 75 79 82
74 78 78 81 82 86 100 95 96 94 70 62 47 35 23 17 8 5 4 4 4 4 4 3 3 3 3 4 5 5 6 8 10 15 27 41 48 50 56 64 68 74 81 80
72 76 81 76 77 90 94 94 91 80 70 52 37 30 15 8 4 3 3 3 3 3 3 3 3 3 4 4 4 4 5 5 6 9 15 29 43 56 59 62 68 71 69 76
76 86 80 73 78 83 88 95 75 73 59 40 36 17 9 5 4 3 3 3 3 3 3 4 4 5 5 5 4 4 4 4 5 6 9 16 32 46 55 60 59 65 63 64
84 84 74 70 85 65 78 81 68 63 48 38 24 14 7 4 3 3 3 3 4 4 5 5 5 5 5 5 5 5 5 4 4 5 7 9 18 36 50 55 56 55 56 57
86 82 71 72 77 62 68 60 57 55 40 32 19 10 5 4 3 3 3 4 5 5 5 5 6 6 5 5 5 5 5 4 4 5 5 7 11 24 41 50 56 60 61 60
87 75 77 76 66 59 62 58 53 46 31 21 14 6 4 3 3 3 4 5 6 5 5 5 6 5 5 4 4 5 5 4 4 5 5 5 8 16 33 47 57 66 64 64
89 81 83 68 59 56 63 50 49 38 24 17 8 4 4 3 3 4 5 5 5 5 4 4 4 4 4 4 4 4 4 4 4 4 5 5 6 11 23 39 50 64 66 67
93 90 81 70 58 53 50 50 46 27 19 11 5 4 4 3 3 4 5 5 4 4 4 4 4 4 4 4 4 3 3 3 4 4 4 5 5 8 17 28 44 59 68 75
90 82 65 61 49 51 51 50 38 22 13 6 3 3 4 4 4 4 5 5 4 4 4 4 4 4 4 4 3 2 2 2 3 3 4 5 5 6 12 23 34 50 66 75
78 71 59 54 41 48 54 45 29 15 11 6 3 3 4 5 4 4 4 3 4 4 4 4 3 4 4 4 3 3 3 2 3 3 4 5 5 6 10 15 22 44 63 76
77 66 55 46 40 48 49 41 23 12 9 4 3 3 5 5 4 4 4 3 3 3 4 3 4 4 4 4 3 3 2 2 3 3 4 4 5 6 9 13 20 32 49 63
65 55 47 36 45 53 46 27 18 10 5 3 2 4 4 4 4 3 3 3 3 3 3 3 3 4 4 4 3 2 2 2 3 3 4 4 5 6 7 11 18 26 36 50
57 49 42 37 47 46 39 22 13 9 4 3 3 4 4 4 4 4 4 3 3 3 3 3 4 4 3 3 2 2 2 3 3 3 4 4 5 6 8 11 17 22 28 34
48 45 43 36 48 41 28 17 11 6 3 3 4 5 4 4 3 4 4 3 3 3 3 3 4 3 3 2 2 2 3 3 3 4 4 4 6 7 8 9 13 15 18 22

GFSNGP_250_rhum_081.txt.gz
RH
28 34 35 32 29 26 28 32 29 25 27 35 32 28 30 28 34 48 55 40 26 29 77 100 100 100 100 100 100 100 95 100 100 100 100 100 100 100 100 100 100 100 100 100
52 55 53 51 58 62 67 58 46 46 41 39 35 31 27 28 25 23 23 25 32 37 38 36 74 100 100 100 100 100 100 100 100 100 100 100 100 100 100 100 100 100 100 100
49 49 56 64 65 63 63 62 61 64 64 61 55 54 44 41 37 30 25 24 22 19 19 24 31 40 55 90 98 99 100 100 100 100 100 100 100 100 100 98 100 100 100 100
47 48 51 49 48 48 51 50 52 55 49 54 56 52 55 54 52 47 46 45 38 29 24 19 16 16 20 28 39 53 60 90 100 100 100 100 100 100 97 95 95 85 90 82
53 52 50 58 55 56 51 54 45 49 56 43 38 38 44 48 44 46 42 40 42 36 32 30 25 21 19 16 16 18 22 31 47 70 82 93 97 93 88 87 94 98 99 98
57 60 61 60 64 61 60 69 56 61 57 60 64 62 60 54 43 37 40 41 36 37 37 36 30 26 24 22 19 17 16 16 16 17 22 26 26 28 31 33 34 35 35 36
62 61 63 62 66 66 70 69 87 82 78 75 73 57 51 52 49 49 46 42 39 38 39 38 32 29 27 22 20 20 18 18 17 15 14 16 19 24 26 26 27 30 31 32
69 70 71 67 67 66 73 78 78 87 90 80 80 74 64 58 52 51 52 41 32 28 21 20 34 34 24 21 21 20 18 19 20 17 18 18 19 19 20 21 22 23 23 23
73 70 78 75 74 76 90 86 92 94 100 90 86 82 67 68 53 55 45 34 29 27 23 13 16 19 25 21 18 18 17 18 17 20 21 19 18 21 23 25 25 25 24 24
69 75 83 80 74 84 82 76 94 94 95 84 80 83 75 59 55 58 42 31 31 25 14 10 7 9 11 16 16 13 13 12 13 16 17 19 22 23 22 25 31 34 33 31
68 74 90 91 89 89 89 89 87 91 77 78 72 72 64 53 49 46 33 30 20 11 7 5 5 4 4 6 10 11 10 9 9 11 13 16 18 24 28 32 36 38 41 43
70 84 90 94 90 91 95 88 74 79 78 79 69 60 57 53 46 34 24 19 9 6 5 4 4 4 3 3 4 6 6 7 6 7 9 13 16 20 26 36 40 42 46 52
72 83 90 91 90 95 96 80 65 72 67 67 63 58 48 37 34 24 18 9 5 4 4 3 3 3 3 3 3 3 4 5 5 5 6 8 11 15 21 29 36 50 58 63
75 85 95 91 95 99 91 76 64 67 64 68 59 57 38 34 27 19 11 6 4 4 3 3 3 3 3 3 3 3 4 4 4 4 4 6 7 10 14 19 24 41 55 68
80 83 87 97 96 99 77 65 61 63 63 61 52 43 31 30 18 11 6 4 4 3 3 3 3 3 4 4 3 3 3 3 4 4 4 4 5 7 9 14 19 25 39 59
83 80 87 99 100 86 71 64 58 54 52 55 45 36 26 24 15 8 4 4 4 3 3 4 4 5 5 5 5 5 4 5 4 4 4 4 5 5 7 10 14 18 24 41
79 78 82 100 93 80 66 56 52 52 51 57 41 31 25 17 10 5 4 3 4 4 5 5 5 5 5 5 5 5 5 5 5 6 6 5 4 5 6 7 11 16 22 36
86 77 86 97 82 67 55 53 55 45 61 39 36 26 21 14 6 4 3 3 5 6 5 5 5 5 5 5 5 5 6 6 6 6 6 6 6 5 5 6 8 14 20 32
76 91 97 82 64 54 57 49 53 49 44 36 30 21 14 8 4 3 3 4 5 6 4 4 5 5 5 5 5 5 4 5 5 6 6 6 6 6 6 6 7 11 19 37
88 99 92 79 54 47 54 54 46 42 43 31 23 18 14 6 3 3 4 5 4 5 5 4 4 4 4 4 4 4 4 4 5 5 5 6 6 6 6 6 6 10 21 39
90 94 87 73 49 45 49 43 47 45 37 24 19 14 10 4 3 3 4 5 4 4 4 4 4 4 4 4 4 4 4 4 4 4 5 5 5 6 6 6 6 8 19 39
88 91 77 60 52 46 45 50 44 43 35 23 14 12 6 3 3 4 4 5 4 4 4 3 3 4 4 4 4 4 4 4 4 4 4 4 4 5 6 6 6 8 18 36
96 83 71 60 55 44 45 46 37 44 28 17 11 9 3 3 3 5 4 4 3 4 4 3 3 4 4 3 3 3 4 4 3 3 2 3 3 4 5 6 6 8 15 32
93 72 65 58 51 43 43 40 42 38 24 14 9 5 3 3 4 4 4 3 3 3 4 3 3 3 3 3 3 3 4 4 3 3 3 3 3 4 5 6 6 8 13 26
77 66 60 55 44 37 41 42 44 33 23 12 8 3 2 3 4 4 3 2 2 3 4 3 3 3 3 3 3 3 3 3 3 3 3 3 3 4 5 6 7 8 12 23
65 63 56 49 41 38 39 42 37 25 16 10 5 3 3 4 4 3 3 2 2 3 3 3 3 3 3 3 3 2 2 2 2 2 3 3 3 4 5 6 7 8 11 21
67 63 52 43 37 35 39 43 33 20 14 8 4 3 3 4 4 3 2 2 2 3 3 3 3 3 3 3 2 2 2 2 2 3 3 3 4 4 5 6 7 10 14 21

GFSNGP_250_rhum_084.txt.gz
RH
18 17 17 25 38 44 43 40 34 30 31 28 23 31 27 27 41 44 50 95 100 100 97 100 100 100 94 89 100 95 98 98 85 100 96 100 100 100 100 100 100 100 100 100
34 31 35 45 47 46 55 56 57 56 53 46 34 29 27 29 35 30 31 52 98 100 100 97 87 95 100 87 91 100 81 71 97 92 96 73 80 80 100 100 100 100 100 100
37 40 48 48 47 51 47 46 42 46 48 48 49 50 46 46 42 36 32 34 37 52 98 100 100 94 98 98 100 100 100 100 94 100 87 94 88 100 80 73 78 80 87 96
43 44 45 49 47 48 46 38 42 46 44 39 40 41 46 44 49 49 49 47 45 37 30 36 58 83 100 100 92 88 85 94 97 100 100 96 81 97 96 97 95 80 85 76
50 50 49 48 47 53 54 52 47 52 46 44 37 36 38 36 39 42 42 40 39 40 44 39 35 31 28 33 47 76 92 93 81 100 100 99 91 95 100 100 100 100 100 100
58 57 54 53 60 60 58 55 48 55 57 56 46 52 49 44 52 47 47 37 28 28 29 26 29 30 28 30 28 25 26 43 82 96 96 81 73 78 83 89 100 100 100 100
73 75 70 68 76 67 75 69 69 63 56 55 54 56 54 57 53 44 44 35 34 29 25 25 26 23 20 20 22 22 22 22 20 21 24 43 75 97 88 80 85 96 100 99
74 77 79 76 83 83 81 78 72 63 63 59 60 50 48 48 47 50 44 36 37 37 27 24 28 23 16 15 14 14 15 15 16 18 20 19 20 19 18 36 59 78 99 100
81 86 86 91 85 85 93 84 76 68 68 59 58 55 61 63 68 50 46 39 40 31 24 24 20 13 11 8 8 10 10 12 11 12 14 15 18 19 19 19 19 23 24 28
75 83 90 95 89 94 93 94 78 71 68 61 60 56 55 68 59 60 46 37 34 27 25 19 10 7 6 5 6 5 6 6 8 10 8 10 11 14 16 17 18 19 18 19
77 77 82 91 95 95 96 100 84 72 62 62 53 58 56 62 48 49 39 32 30 28 23 11 6 4 4 4 4 4 4 4 4 5 6 6 6 7 10 13 15 18 22 21
87 79 81 85 91 93 100 98 82 68 62 62 55 59 60 54 53 47 38 30 23 19 10 6 4 3 3 3 3 3 4 4 4 4 4 5 5 6 6 7 10 13 18 22
94 83 85 89 84 94 84 76 66 57 56 63 55 60 58 59 51 40 28 22 21 11 5 4 3 3 3 3 3 3 3 3 3 3 4 4 4 4 5 7 8 10 13 17
98 89 84 79 70 78 71 70 64 54 53 53 50 56 52 50 42 34 23 17 12 5 4 3 3 3 3 3 3 3 3 3 3 3 3 3 3 4 4 4 6 8 11 15
100 93 90 74 67 74 72 66 65 53 49 49 52 52 48 42 36 25 16 13 6 3 3 3 4 4 4 4 4 4 4 4 4 4 4 3 3 3 3 4 4 5 8 10
100 98 84 71 66 66 65 61 66 52 49 48 45 47 38 37 28 20 12 9 4 3 3 4 4 4 4 4 4 4 4 5 5 5 5 5 4 4 4 3 3 4 6 8
99 91 82 71 65 60 65 70 65 53 49 49 42 46 43 34 21 14 11 4 3 3 4 5 5 4 4 4 4 4 4 4 4 5 5 5 5 5 4 4 4 4 5 6
87 84 81 75 64 59 73 74 62 47 43 47 41 45 37 23 17 11 7 3 2 3 4 4 4 4 4 4 4 4 4 4 4 5 5 5 6 6 6 6 6 5 5 5
89 97 81 81 68 68 71 71 54 46 41 40 46 38 34 18 12 9 5 3 3 4 4 3 4 4 3 3 4 3 3 4 4 4 5 5 5 6 6 6 7 7 6 5
76 90 80 79 68 71 73 70 52 47 40 34 39 34 24 15 12 6 3 3 3 4 4 3 3 3 3 3 3 3 3 3 3 4 5 6 5 5 6 6 7 8 8 7
73 90 86 86 84 78 70 61 52 44 43 38 33 30 18 13 11 4 3 3 4 4 3 3 2 2 3 3 3 3 3 3 3 4 4 5 5 5 5 6 6 7 8 8
73 82 87 92 83 79 65 59 53 44 42 34 32 24 14 11 8 3 2 4 4 3 3 2 2 2 3 3 3 3 3 3 3 4 4 4 4 5 5 5 6 7 8 8
84 88 84 90 89 76 64 59 50 42 35 36 26 16 11 9 4 3 3 3 3 3 2 2 2 3 3 3 3 3 3 3 3 3 3 4 4 4 5 5 6 7 8 8
95 90 88 88 80 72 63 55 45 38 33 34 23 12 9 8 3 3 4 4 3 2 2 2 2 3 3 3 3 3 3 3 4 4 4 4 3 3 4 4 6 7 8 8
98 97 91 88 76 70 63 52 43 36 34 30 18 12 8 4 3 3 4 3 2 2 2 2 2 3 3 3 3 3 3 3 3 4 4 4 4 3 3 4 6 7 8 8
100 89 87 91 77 68 58 46 39 37 35 24 12 9 8 4 3 4 4 3 2 2 2 2 2 3 3 3 3 2 2 2 2 2 3 3 3 3 4 5 6 7 7 8
100 86 87 91 75 63 52 43 33 35 32 20 11 10 7 3 3 4 4 3 2 2 2 3 3 3 3 3 2 2 2 2 2 2 2 2 3 3 4 5 6 7 8 9

GFSNGP_250_rhum_087.txt.gz
RH
20 26 30 38 38 38 40 30 27 23 21 23 23 22 39 54 99 82 72 100 100 100 100 100 100 100 100 100 100 100 100 100 100 100 100 100 100 100 100 100 100 100 100 100
37 41 41 46 46 47 46 43 38 38 39 33 30 23 26 34 63 89 74 89 100 100 100 100 100 100 100 100 100 100 100 100 100 100 100 100 100 100 100 100 100 100 100 100
35 38 44 46 46 42 40 40 40 41 43 44 42 42 39 35 32 49 96 100 100 100 100 100 100 100 100 100 100 100 100 100 100 98 100 82 99 100 100 100 100 100 100 100
50 47 48 47 42 41 44 42 39 38 37 35 35 38 46 52 48 43 37 60 98 100 100 100 100 100 100 100 100 100 100 100 100 100 92 78 75 77 90 100 100 100 100 100
44 47 50 56 49 47 48 46 46 39 34 40 37 32 36 37 32 31 43 51 46 47 85 98 100 100 100 100 100 100 100 100 100 100 98 96 100 99 76 73 78 87 82 80
52 50 48 48 51 52 48 50 52 48 42 42 41 36 35 32 27 28 27 28 29 32 37 39 44 51 84 100 100 100 100 98 88 84 90 96 92 97 97 95 85 80 84 76
64 61 59 62 62 57 53 55 50 50 50 44 41 39 39 36 39 38 37 27 27 24 25 26 27 29 32 36 51 68 77 74 79 84 80 82 81 99 97 88 87 95 96 91
80 83 80 76 77 73 70 69 68 68 58 51 46 46 49 47 43 42 39 34 29 30 28 27 24 21 20 20 24 28 32 32 28 32 44 68 82 75 66 60 52 68 81 71
88 87 90 94 94 88 76 69 72 64 63 59 52 52 56 49 50 50 42 40 34 32 31 27 20 18 17 15 12 12 14 19 21 25 24 26 26 23 25 28 18 13 19 49
99 96 95 92 91 90 83 67 63 72 69 67 63 56 54 57 55 53 47 41 35 33 29 28 18 15 11 7 6 5 5 5 6 7 10 14 15 16 16 16 15 18 19 17
92 96 97 92 84 83 74 70 71 70 72 66 67 66 56 61 48 50 44 41 32 30 31 25 20 13 7 4 3 3 3 3 3 3 3 4 4 6 7 8 9 10 12 13
94 99 92 88 88 89 76 71 68 67 67 72 75 67 57 54 51 46 40 36 29 31 28 22 15 7 4 3 2 2 2 2 2 3 3 3 3 3 4 4 5 7 9 9
100 100 100 99 90 84 74 68 69 65 66 80 69 66 54 52 49 48 42 32 26 28 21 14 7 4 3 3 2 2 3 3 3 3 3 3 3 3 3 4 4 4 5 6
100 100 100 99 88 82 74 68 67 67 63 70 70 62 56 48 49 38 36 27 26 22 16 8 4 3 3 3 3 4 4 4 4 4 4 3 3 3 3 3 3 4 4 5
100 100 100 100 90 84 78 67 63 61 64 70 65 60 56 51 49 41 33 23 22 15 9 4 3 3 3 4 4 4 4 4 5 5 4 4 4 4 4 4 4 4 4 4
100 100 100 100 96 79 68 66 64 63 66 64 66 59 56 46 43 37 29 23 17 10 4 3 3 3 4 4 4 4 4 4 4 4 4 4 5 5 5 6 6 5 4 4
100 100 100 100 100 93 78 69 73 73 67 65 65 57 52 39 40 34 24 22 12 5 3 3 3 4 4 4 4 4 3 3 4 4 4 4 4 5 5 5 6 6 6 5
100 100 100 100 100 93 96 84 81 79 71 65 61 56 54 44 40 29 24 17 8 4 2 3 4 4 4 3 3 3 3 3 3 4 4 4 4 4 5 5 5 6 6 5
100 100 100 100 98 91 98 87 84 77 72 64 63 55 54 45 36 27 22 11 4 3 3 3 4 3 3 2 2 2 2 3 3 3 3 3 4 4 5 5 5 6 7 6
100 100 100 99 100 92 98 86 83 79 72 65 62 53 43 38 30 24 16 6 3 3 3 4 3 2 2 2 2 2 2 3 3 3 4 4 4 4 4 5 5 6 7 7
100 100 100 95 98 92 94 91 84 75 71 62 56 50 38 34 25 20 11 4 3 3 3 3 2 2 2 2 2 2 3 3 3 3 3 4 4 4 5 5 5 6 7 7
100 100 100 94 99 92 90 86 81 71 70 64 54 47 41 32 23 16 6 3 3 4 3 2 2 2 2 2 2 2 3 3 3 3 3 3 4 4 4 4 5 6 6 7
100 100 100 100 100 88 84 90 82 70 70 64 50 43 40 26 19 11 4 3 4 4 2 2 2 2 2 2 2 2 3 3 3 3 3 3 4 4 4 4 5 6 6 7
100 100 100 100 98 85 81 88 84 69 68 59 48 43 35 22 14 6 3 3 4 3 2 2 2 2 2 2 3 3 3 3 3 3 3 3 4 4 4 5 5 6 6 7
100 100 100 100 92 84 82 90 83 69 67 54 44 39 31 20 11 4 3 4 4 3 2 2 2 2 3 3 3 3 3 2 2 2 2 3 4 4 4 3 4 5 6 7
100 100 100 100 93 90 80 81 83 75 61 50 45 34 25 16 8 4 3 4 4 2 2 2 2 3 3 3 3 3 2 2 2 2 2 2 3 4 4 3 4 5 6 7
100 100 100 94 90 85 76 75 78 74 58 45 44 31 22 13 7 4 4 5 3 2 2 2 3 3 4 3 3 3 2 2 2 2 2 2 2 3 3 4 4 5 6 7

GFSNGP_250_rhum_090.txt.gz
RH
23 26 28 29 31 31 24 18 17 18 18 19 21 22 27 27 22 30 40 66 100 100 100 100 100 100 100 100 100 100 96 100 100 100 100 100 100 100 100 100 100 100 100 100
38 42 42 42 38 36 35 34 31 28 27 23 23 25 38 74 52 52 54 51 86 100 100 100 100 100 100 100 100 100 100 100 100 100 100 100 100 100 100 100 100 100 100 100
35 35 43 44 40 40 40 39 37 37 37 35 35 35 32 38 52 49 86 68 81 100 100 100 100 100 100 100 100 100 100 100 100 100 100 100 100 100 100 100 100 100 100 96
44 48 50 49 49 48 44 40 38 35 35 34 37 40 42 44 39 35 56 94 96 98 100 100 100 100 100 100 100 100 100 100 100 100 100 100 99 100 100 100 99 100 100 96
61 59 58 56 56 56 54 53 46 38 37 34 33 34 38 34 31 40 41 54 73 87 97 100 100 100 100 100 100 100 100 100 100 100 100 100 100 100 100 100 99 99 99 100
52 52 54 50 46 41 39 37 35 35 40 42 44 42 44 39 29 29 28 28 31 36 38 72 100 100 100 100 100 100 100 100 100 100 95 94 99 100 100 100 100 92 90 86
62 59 55 51 51 51 50 47 47 48 47 46 46 48 50 54 54 47 42 40 39 33 24 25 29 29 31 42 83 85 84 89 97 82 76 81 86 96 100 95 95 87 77 66
80 75 72 68 68 66 63 61 62 62 61 59 56 55 59 55 56 53 50 48 47 45 43 36 34 32 27 26 26 29 33 42 66 76 76 71 78 57 56 68 81 96 94 90
70 71 74 80 80 82 81 76 72 68 67 63 64 68 60 64 71 62 58 57 53 47 43 40 38 33 29 25 19 18 18 21 26 25 23 21 17 16 44 55 42 40 38 42
70 74 75 76 79 90 88 83 80 75 73 68 64 66 65 65 65 64 63 61 56 53 52 49 43 34 26 19 16 12 10 8 7 9 12 15 16 16 18 20 20 17 14 14
75 84 84 83 81 85 88 79 80 80 72 64 64 66 69 66 66 61 64 58 57 54 53 52 41 35 24 15 9 7 5 4 3 3 3 3 3 4 6 8 11 14 16 17
89 98 100 98 88 83 82 85 89 81 74 71 72 75 68 71 69 66 65 54 55 52 46 41 32 26 18 9 5 4 3 3 2 2 2 2 2 2 2 2 3 4 5 8
100 100 100 100 100 94 95 100 100 98 85 81 81 78 67 70 69 65 62 53 51 47 44 34 26 20 10 5 3 3 3 2 2 2 3 3 3 3 3 2 3 3 3 3
91 100 100 100 100 100 100 100 100 100 87 77 79 63 70 73 63 61 60 54 47 44 40 27 20 11 4 3 3 3 3 3 4 4 4 4 4 4 4 4 4 3 3 3
86 91 100 100 100 100 100 94 93 93 84 82 74 72 72 78 67 62 53 54 46 42 32 22 13 5 3 2 3 3 3 4 4 4 3 4 4 5 5 6 6 5 4 4
85 98 95 96 100 100 100 98 98 82 78 72 70 74 74 78 72 58 51 48 45 38 24 15 6 3 2 3 3 4 3 3 3 3 3 3 3 4 4 4 5 5 5 5
76 85 92 95 95 100 100 100 95 78 84 78 71 72 69 74 73 57 49 46 43 30 18 8 3 3 3 3 3 3 2 2 2 2 2 2 2 3 3 4 4 5 5 5
87 86 87 96 90 100 100 100 100 78 83 77 70 70 70 73 65 54 44 48 41 27 13 4 3 3 3 3 2 2 2 2 2 2 2 2 2 3 3 4 4 4 4 4
94 100 98 95 94 83 98 100 100 91 83 76 67 71 72 68 58 50 42 46 32 20 7 3 3 3 3 2 2 2 2 2 2 2 2 2 3 3 4 4 4 4 4 4
84 100 100 95 94 89 96 100 100 99 83 88 73 71 66 59 50 50 45 43 25 14 4 3 4 3 2 2 2 2 2 2 2 2 2 3 3 3 3 4 4 4 4 5
99 100 100 100 91 91 96 99 100 99 86 85 74 66 61 55 48 50 48 34 21 8 3 4 3 2 2 2 2 2 2 2 2 2 2 3 3 3 3 3 4 4 4 5
100 100 100 100 97 90 97 99 100 100 95 88 68 61 57 55 50 46 44 27 17 5 4 4 2 2 2 2 2 2 2 2 2 2 2 2 3 3 3 3 4 4 5 6
100 100 100 100 100 96 100 98 100 100 88 86 68 60 58 54 55 48 39 24 11 4 4 4 2 2 2 2 2 3 3 2 2 2 2 2 2 3 3 3 4 4 5 6
100 100 100 99 100 100 100 97 99 100 90 83 67 59 60 54 50 47 30 21 7 4 4 3 2 2 2 2 3 3 3 2 2 2 2 2 2 3 3 4 4 4 5 6
100 100 100 98 96 100 100 99 100 96 92 91 69 58 58 58 53 45 29 17 5 4 4 3 2 2 2 3 3 3 3 2 2 2 2 2 2 3 4 4 4 5 5 5
100 100 100 99 98 97 100 99 98 91 90 82 68 57 56 58 48 39 27 12 4 5 4 3 3 3 3 4 4 3 3 2 2 2 2 2 2 2 4 4 3 4 5 6
100 100 97 93 96 94 99 93 91 87 90 81 68 60 61 57 45 36 24 8 4 5 4 3 3 3 4 4 4 3 3 3 2 2 2 2 2 2 3 4 4 4 5 6

GFSNGP_250_rhum_096.txt.gz
RH
26 24 25 25 23 24 22 22 21 18 17 18 27 35 37 48 54 60 53 50 47 22 17 24 44 40 54 64 97 100 100 100 100 100 100 100 100 100 100 100 100 100 100 100
28 29 29 30 31 33 38 32 26 24 24 24 27 28 32 31 37 51 73 71 70 69 67 68 51 38 62 62 77 63 60 84 94 100 100 100 100 100 100 100 100 100 100 100
36 36 37 36 38 38 39 40 41 42 40 37 35 36 38 40 36 33 36 49 54 65 83 83 85 91 71 70 78 85 100 90 100 100 100 100 100 100 100 100 100 100 100 100
44 44 47 48 49 48 50 48 50 54 54 55 56 54 52 49 48 46 42 33 38 45 51 43 49 54 69 85 95 98 97 99 100 100 100 100 100 100 100 100 100 100 100 100
59 60 62 63 64 66 66 63 58 55 55 60 61 62 64 63 65 68 67 68 69 68 68 66 68 67 66 69 78 82 79 88 99 100 100 100 100 100 100 100 100 100 100 100
54 59 62 67 67 68 67 70 68 66 67 67 62 58 62 60 59 60 61 62 62 62 58 60 66 64 66 66 66 70 70 65 68 75 85 96 100 100 98 100 100 100 100 100
55 56 56 55 55 58 61 60 58 64 67 64 60 60 58 55 53 53 49 48 49 51 55 59 61 62 62 59 53 51 53 54 56 58 60 62 65 70 76 77 85 98 100 100
57 56 54 56 57 59 60 60 57 58 58 56 54 49 45 45 47 48 50 51 50 50 48 49 52 52 52 50 46 45 47 49 51 50 42 39 37 36 36 43 46 51 62 73
59 62 61 58 60 57 59 60 65 63 54 50 48 42 41 41 43 44 44 45 47 48 50 52 56 54 55 54 54 49 49 53 53 46 40 28 22 19 18 23 24 26 28 25
64 63 66 67 66 66 66 68 70 70 65 61 60 59 57 55 54 54 54 54 54 58 61 65 60 61 62 61 55 52 51 51 51 43 32 23 12 7 5 4 6 8 10 11
65 70 79 77 83 86 82 80 80 88 85 79 78 76 77 78 78 78 76 72 70 72 76 73 69 68 67 60 56 53 53 52 42 25 13 6 3 3 2 2 2 2 2 2
72 71 68 69 75 77 82 88 95 93 95 95 92 91 89 91 92 79 74 77 75 72 78 73 71 69 68 58 53 52 54 44 27 13 5 3 3 3 2 2 2 3 3 3
72 71 75 78 81 78 88 92 94 92 89 88 95 96 94 87 92 87 88 86 79 79 78 76 70 70 61 55 53 55 48 30 12 4 3 3 2 2 2 2 2 2 2 3
99 81 83 90 100 94 92 92 97 97 96 97 97 96 99 95 92 93 89 88 84 85 87 76 72 68 54 54 56 54 38 15 4 4 3 2 2 2 2 2 1 1 2 2
100 85 90 99 98 100 97 100 100 100 100 98 99 100 100 97 97 99 98 93 92 95 85 76 74 65 51 52 55 44 22 5 4 3 2 2 2 2 2 2 2 2 1 2
100 100 100 94 74 75 77 84 97 100 100 100 100 100 99 100 100 100 97 97 93 92 83 72 74 57 49 53 52 32 9 4 3 2 2 2 2 2 2 2 2 2 2 2
42 80 99 96 95 91 87 99 100 98 100 100 100 100 99 100 100 97 93 95 98 89 82 78 72 48 48 54 45 18 5 4 3 2 2 2 2 2 2 2 2 2 2 2
18 28 51 87 97 100 100 100 100 100 100 100 100 100 100 100 99 92 98 98 94 90 82 76 58 46 47 50 29 10 5 4 3 3 2 2 3 3 3 2 2 2 2 2
8 9 14 28 73 96 99 100 100 100 100 100 100 100 100 100 100 99 100 97 92 88 79 69 47 44 48 44 19 7 4 4 3 3 3 3 3 3 2 2 2 2 2 2
7 7 8 10 24 50 85 96 100 100 100 100 100 100 100 100 100 100 100 89 90 84 73 59 42 45 46 35 13 6 4 3 4 3 3 3 2 2 2 2 2 2 2 3
8 7 7 7 8 13 28 64 94 100 100 100 100 100 100 100 100 99 98 87 85 77 62 42 41 47 40 24 10 5 4 4 4 3 3 2 2 2 2 2 2 2 2 3
9 8 7 7 7 7 9 26 60 92 100 100 100 100 100 100 100 100 100 94 83 75 56 42 43 47 39 21 8 5 4 4 4 3 3 2 2 2 2 2 2 2 2 3
11 9 8 7 7 7 7 8 15 38 54 97 100 100 100 100 100 100 100 84 75 66 43 41 47 46 38 19 7 5 5 5 4 3 3 2 2 2 2 2 2 2 3 3
11 8 8 7 6 7 7 7 7 9 31 67 100 100 100 100 100 100 98 81 72 48 41 44 50 45 28 16 7 5 6 6 5 3 2 2 2 2 2 2 3 3 4 4
11 8 8 7 7 6 6 6 7 9 21 48 92 100 100 100 100 100 87 77 61 49 46 48 52 46 27 12 7 6 6 6 5 3 3 2 2 2 2 3 3 4 4 5
12 8 7 7 7 6 6 6 7 8 14 41 86 99 100 100 100 100 84 70 64 49 50 52 53 47 26 9 7 7 7 7 5 3 3 2 2 3 3 3 3 4 4 5
16 10 7 7 7 6 6 6 8 10 11 30 65 98 100 100 100 100 89 81 56 47 50 54 54 44 25 10 7 8 9 9 6 4 3 3 3 3 3 3 4 4 4 5

GFSNGP_250_rhum_099.txt.gz
RH
35 34 30 26 25 25 25 27 28 28 32 27 24 26 32 37 49 48 46 45 51 65 61 58 58 63 48 26 26 41 61 98 100 100 100 100 100 100 100 100 100 100 100 96
31 32 34 31 31 34 35 36 33 31 36 33 36 35 32 30 35 36 37 45 49 48 53 64 68 63 70 76 73 66 56 60 66 99 100 100 100 100 100 100 100 100 100 100
43 44 45 41 42 40 40 39 35 37 40 41 40 44 44 39 36 39 43 45 52 54 55 58 63 60 59 62 66 78 82 82 92 76 96 94 100 100 100 100 100 100 100 100
46 46 49 50 53 52 53 54 54 52 50 48 46 44 45 46 48 47 47 52 56 58 57 56 56 56 58 61 62 66 73 94 100 100 100 100 99 97 100 100 100 100 100 100
60 58 53 54 56 56 58 59 59 57 56 57 54 54 52 54 55 56 60 64 65 65 64 64 65 67 67 68 68 71 76 81 79 99 100 100 100 100 100 92 100 100 100 100
57 58 60 62 65 65 64 64 71 75 72 69 67 63 61 64 71 79 71 72 66 63 65 67 67 63 63 64 67 70 72 73 72 75 80 75 82 85 96 99 100 100 100 100
51 54 55 58 64 68 70 67 68 68 67 69 69 65 63 61 61 62 60 61 61 62 65 66 65 63 60 61 62 62 63 62 60 60 59 54 55 53 58 62 65 67 74 84
61 55 51 52 55 57 59 63 61 62 64 60 59 61 60 59 58 57 62 66 67 64 60 58 57 56 56 54 56 57 55 56 54 45 45 45 45 40 38 36 34 42 56 60
67 62 61 56 54 56 60 66 68 68 70 68 63 60 64 62 58 58 57 52 50 47 44 42 43 43 46 50 51 56 62 66 67 61 53 52 51 47 36 31 26 22 17 14
78 74 73 64 67 62 59 61 67 72 76 74 75 73 67 63 63 64 63 61 59 55 52 49 49 51 56 58 56 65 59 60 64 58 50 51 50 44 34 25 14 6 3 3
94 78 92 81 77 69 71 76 82 82 80 80 82 81 86 87 85 85 82 78 76 70 74 74 68 67 67 64 62 61 60 60 65 55 49 49 47 33 19 7 4 3 3 3
96 100 80 83 69 71 72 71 69 77 82 88 88 91 93 92 87 79 77 76 76 80 74 71 76 69 72 69 69 66 68 60 66 49 48 43 33 22 6 4 3 2 2 2
23 62 88 87 72 63 78 80 78 79 78 80 88 91 96 97 96 94 94 90 87 82 76 72 71 75 75 70 68 62 57 57 53 46 42 33 17 4 4 3 2 2 2 2
13 16 60 90 76 86 86 99 100 99 99 99 90 94 96 98 100 100 99 93 87 80 76 76 77 76 71 70 65 61 50 54 51 44 35 20 5 3 3 2 2 2 2 2
19 12 11 27 70 82 96 97 95 100 100 100 96 86 82 79 87 97 97 96 88 80 76 78 80 79 74 75 66 57 42 53 45 40 25 7 4 3 2 2 2 2 2 2
33 16 11 10 10 25 40 64 97 100 100 100 98 96 93 90 90 92 99 95 79 76 75 80 82 90 82 81 64 54 45 46 43 33 12 4 3 3 3 3 3 3 2 2
53 34 18 11 9 8 9 12 19 32 64 93 97 96 96 97 100 99 94 83 81 89 96 93 89 87 85 74 64 44 47 47 39 21 5 4 3 3 3 3 2 2 2 2
57 51 34 15 11 9 7 7 8 9 10 20 38 62 95 99 100 93 79 89 98 100 100 100 100 87 80 70 51 44 46 45 30 8 4 4 4 3 3 2 2 2 2 2
57 59 45 31 14 10 9 7 7 7 8 9 15 29 56 81 77 89 98 98 98 100 100 100 100 84 82 61 49 47 48 40 16 6 4 4 4 3 3 2 2 2 2 2
54 59 51 39 25 11 8 8 7 6 7 7 8 10 17 23 42 63 87 100 100 100 100 100 92 83 75 63 47 46 48 30 9 5 5 5 4 3 2 2 2 2 2 2
64 65 62 53 30 17 9 7 8 7 6 7 7 7 6 7 19 55 79 93 100 100 100 100 98 100 80 55 46 48 46 20 7 5 6 5 4 3 2 2 2 2 2 2
65 73 56 66 38 25 12 8 7 7 6 6 6 6 6 7 8 16 38 71 93 100 100 95 84 91 70 54 48 51 37 14 6 6 6 5 3 2 2 2 2 2 2 3
69 72 58 63 47 26 14 10 8 7 7 6 6 7 7 7 8 9 16 56 100 100 100 100 100 87 63 55 53 49 26 10 7 7 7 4 3 2 2 2 2 3 3 3
81 69 69 60 45 24 16 11 9 7 7 6 6 6 7 7 10 11 17 40 81 100 100 100 100 83 58 58 57 42 22 9 7 8 7 4 3 3 2 2 3 3 3 4
87 80 79 66 46 24 15 12 9 8 7 7 6 7 7 8 10 12 15 43 72 83 98 100 92 73 59 58 56 38 16 8 8 9 7 5 4 3 3 3 3 3 4 4
71 81 82 74 56 30 17 12 8 7 7 7 7 7 7 9 10 12 18 37 70 87 100 100 75 66 64 61 54 34 14 8 9 10 8 5 4 3 3 3 3 4 4 4
77 69 74 81 62 30 16 12 8 6 6 6 6 7 8 9 11 13 22 51 69 88 100 87 75 68 64 65 55 30 12 9 10 10 8 6 5 4 4 4 4 4 5 5

GFSNGP_250_rhum_102.txt.gz
RH
37 37 38 35 31 30 31 34 35 28 26 26 30 29 30 32 28 34 34 32 22 26 38 46 47 34 29 38 34 25 31 50 76 93 100 100 96 96 88 94 96 100 100 100
48 47 44 43 43 42 41 38 34 33 34 33 35 38 40 39 38 35 33 36 33 42 51 51 51 59 61 60 57 48 54 66 56 60 82 100 100 100 100 100 100 100 100 100
52 51 49 48 45 45 46 47 47 45 44 44 45 44 40 39 39 42 41 44 50 48 50 50 46 46 47 47 49 49 48 66 78 80 86 80 76 86 77 96 97 98 99 100
51 50 49 50 51 52 49 47 48 49 50 49 49 50 50 52 52 51 53 57 59 60 60 60 58 59 60 61 61 60 59 60 60 60 69 71 75 78 77 95 96 100 96 91
55 51 50 50 52 52 53 57 56 55 56 57 56 53 52 52 49 49 52 56 60 61 63 64 63 64 66 70 72 70 69 69 70 69 69 71 70 69 71 70 69 68 72 84
61 64 61 53 52 52 56 64 61 59 63 65 65 63 64 63 60 60 60 62 62 60 63 64 64 64 65 69 70 71 72 74 77 76 72 73 70 70 72 71 75 77 79 80
58 68 65 66 61 54 55 57 64 69 68 69 63 62 64 64 64 65 65 65 69 71 72 70 70 68 66 67 70 70 69 67 67 62 59 55 56 63 65 63 71 70 62 55
31 34 62 64 68 70 62 57 60 65 70 72 73 71 67 64 66 69 68 68 66 66 68 71 69 61 56 56 56 56 58 54 51 46 46 47 48 46 44 44 42 42 42 41
36 26 24 51 73 69 72 67 64 58 55 61 66 67 67 73 72 72 74 77 80 80 76 73 72 72 70 60 52 49 48 46 49 52 51 52 47 43 43 43 41 44 40 33
41 32 31 24 23 29 66 73 67 67 67 65 62 65 71 77 80 78 83 82 79 75 70 68 64 63 62 59 56 52 51 51 51 58 63 66 60 53 50 52 47 45 40 34
47 45 39 32 22 16 21 64 71 75 76 73 76 79 80 83 82 82 80 76 78 82 82 79 70 61 57 57 59 60 61 66 68 68 70 72 64 53 48 45 40 33 26 19
52 55 55 49 40 36 19 15 41 79 76 82 88 96 97 97 95 93 91 88 88 95 100 97 90 85 82 75 77 80 79 75 72 71 68 67 63 60 46 36 26 20 14 10
50 44 49 59 52 41 30 25 13 20 50 70 71 84 92 96 100 100 98 96 98 100 100 100 94 92 92 92 91 86 84 75 76 76 75 72 57 46 42 37 26 16 8 4
58 56 58 54 65 59 47 31 23 14 11 15 38 77 89 98 99 100 100 100 100 100 100 96 98 97 91 91 92 94 94 84 84 78 68 56 45 35 30 24 18 10 4 3
77 73 70 74 72 64 60 43 29 20 14 11 10 14 40 75 94 94 90 94 97 95 97 97 100 92 96 99 96 96 86 82 78 66 56 44 34 31 24 17 6 4 3 4
76 67 59 74 76 71 63 51 37 24 19 12 9 10 8 9 15 24 38 60 77 85 82 58 66 82 85 96 100 100 84 78 73 59 52 41 33 27 19 7 4 4 4 3
93 84 82 67 68 72 67 59 46 29 18 14 10 8 8 8 7 8 8 9 11 13 14 34 42 52 68 77 81 79 77 78 60 49 46 33 30 20 7 4 4 4 3 2
98 100 98 82 89 76 66 68 64 45 25 16 12 9 7 8 8 7 6 6 6 8 9 12 17 27 40 59 76 73 74 67 59 46 36 34 25 9 4 4 4 4 3 2
78 100 100 96 93 84 82 62 70 69 49 21 15 11 8 7 7 7 7 6 7 8 8 8 9 14 22 37 56 61 57 70 52 41 34 30 12 5 4 5 4 3 2 2
67 90 100 96 100 86 82 74 60 75 69 43 20 14 10 7 6 6 6 6 7 7 7 7 8 9 12 24 37 47 60 50 41 37 33 17 6 5 6 5 3 2 2 2
76 85 99 99 100 100 89 78 56 64 72 59 27 16 11 8 6 6 6 6 6 6 7 7 8 9 12 17 30 45 46 46 38 35 26 8 6 6 6 4 3 2 2 2
87 85 99 100 100 100 96 78 55 54 64 58 32 16 12 8 7 6 6 6 6 6 6 8 9 10 13 19 36 44 46 41 38 32 12 7 7 7 6 4 3 2 2 3
96 86 93 100 100 100 99 84 57 49 62 54 29 15 12 8 7 6 6 6 6 7 8 10 11 12 14 25 40 44 42 40 40 23 8 7 8 7 5 4 3 3 3 3
98 83 96 100 95 98 94 82 64 51 61 53 32 14 11 8 7 6 6 6 6 8 9 11 12 13 18 35 43 45 41 44 36 18 7 7 9 7 5 4 3 3 3 4
100 92 98 100 98 99 95 80 68 59 64 56 40 17 12 8 6 6 6 7 8 9 10 12 12 15 32 38 42 43 47 48 31 14 8 8 10 8 5 4 4 4 4 4
89 87 100 100 94 98 94 86 71 65 62 54 38 18 13 8 6 6 7 8 8 9 11 12 13 23 39 41 46 48 54 47 27 11 8 10 10 8 6 5 4 4 4 5
81 95 100 100 90 100 94 82 63 60 48 38 26 16 12 8 7 7 8 8 9 10 11 13 15 36 48 50 58 57 57 44 25 11 10 11 11 8 6 5 4 4 4 5

GFSNGP_250_rhum_105.txt.gz
RH
59 57 54 53 50 49 48 45 39 35 30 28 36 36 34 34 27 24 28 36 33 33 33 34 28 23 23 24 26 32 50 66 78 75 77 70 60 59 51 43 40 44 48 63
56 54 56 60 60 57 55 54 53 48 43 43 43 38 35 34 35 37 37 36 36 34 38 40 35 32 35 25 18 15 19 23 28 29 31 56 74 80 100 74 71 72 85 70
49 54 52 49 48 49 54 56 55 53 51 51 49 48 48 46 45 45 43 42 44 46 48 48 49 49 52 50 47 47 46 49 50 49 52 66 68 68 70 74 81 80 86 89
31 32 47 58 59 53 48 47 49 48 52 54 56 56 55 53 52 53 53 54 57 59 58 59 60 59 56 54 55 56 58 58 58 60 61 62 63 66 73 76 72 71 72 75
46 37 37 45 53 57 63 59 55 48 48 46 49 52 52 55 55 55 55 55 55 57 56 59 63 66 66 64 64 65 64 64 66 65 66 69 68 68 68 68 67 67 68 67
54 49 44 31 38 59 60 64 62 62 60 60 56 51 51 55 57 59 61 61 59 56 58 58 60 61 61 62 64 66 66 67 68 71 74 76 78 82 81 80 82 86 83 85
67 78 61 53 44 37 30 40 65 69 66 66 68 68 66 64 60 60 59 58 60 62 64 67 67 66 69 70 70 68 68 68 68 68 69 69 70 70 72 66 66 67 66 66
55 65 80 77 63 56 46 35 22 30 56 74 69 66 67 69 66 61 61 64 62 61 62 63 65 68 66 65 63 62 60 57 56 55 53 53 53 53 53 52 51 48 45 44
66 60 64 68 73 69 60 53 43 30 18 24 50 64 64 62 62 65 66 66 65 65 65 65 64 63 62 63 63 59 62 66 66 66 66 67 63 56 50 48 50 47 44 39
86 78 73 71 74 77 74 61 49 44 37 25 19 21 31 61 72 75 78 79 79 78 79 82 81 80 81 79 76 75 66 64 69 73 68 63 58 56 54 47 46 39 32 31
85 83 75 73 67 76 86 82 68 61 50 40 30 25 18 22 41 76 92 94 93 93 92 94 92 90 88 82 82 79 81 76 70 70 68 71 62 58 59 55 48 44 43 39
60 74 73 75 75 73 92 86 83 70 70 60 48 32 24 19 15 23 42 79 90 94 99 100 99 91 84 86 82 80 78 77 76 66 70 75 74 70 67 69 46 32 28 27
100 89 98 94 75 79 76 90 82 88 69 70 70 64 42 23 18 14 12 13 20 37 69 80 82 86 91 88 80 79 80 80 75 77 70 65 67 65 73 64 37 28 18 11
100 94 83 82 89 91 88 83 84 85 95 66 53 71 67 51 28 17 15 12 10 10 11 13 24 43 48 37 25 32 43 57 68 58 54 49 41 40 40 31 32 26 16 13
95 95 98 95 89 94 94 83 92 88 83 84 62 42 45 51 45 29 18 14 11 9 9 10 9 8 8 9 14 20 22 16 16 15 15 17 17 18 19 19 20 20 23 17
70 94 79 88 95 89 100 94 88 94 93 86 85 60 45 59 50 29 18 15 12 9 8 8 8 9 8 8 8 8 8 8 8 8 8 9 10 12 12 16 22 24 20 9
64 78 94 89 98 99 100 100 98 97 85 81 81 74 46 53 57 42 19 13 12 9 7 6 6 7 7 6 6 6 6 7 7 7 8 8 10 12 14 19 23 19 6 4
69 77 80 92 100 100 100 100 99 97 90 87 77 71 55 39 52 42 19 12 11 9 7 6 6 6 6 6 6 6 7 7 7 8 9 10 11 14 19 23 19 7 5 5
75 67 76 98 100 100 100 100 96 92 94 90 78 70 57 39 48 46 26 13 11 8 7 6 6 6 6 7 7 7 7 8 9 11 12 12 18 22 23 19 7 5 6 5
84 78 94 85 96 100 98 100 96 84 90 92 77 74 59 38 42 38 20 13 11 8 7 6 6 6 6 7 7 8 9 11 13 13 15 25 25 24 19 7 6 6 5 4
95 97 90 76 92 100 98 95 92 84 82 87 80 79 55 35 35 25 15 10 10 8 7 6 6 6 7 8 8 10 11 13 14 16 25 26 24 21 8 6 7 6 4 3
80 84 97 98 96 100 100 91 88 82 76 87 83 76 50 32 24 17 12 10 9 7 6 6 6 7 8 9 10 11 12 13 23 28 34 31 25 10 6 7 7 5 4 3
68 88 91 100 100 100 100 100 83 79 74 81 83 66 48 31 21 15 12 12 10 7 7 6 8 9 9 10 11 12 15 30 38 43 40 32 14 7 8 8 6 5 4 4
82 77 88 98 100 100 100 100 79 73 77 67 78 67 54 26 21 18 13 12 11 8 8 8 9 9 9 10 12 15 27 42 47 43 38 24 10 8 9 9 6 5 4 4
81 71 76 89 100 100 100 100 82 66 78 58 72 71 58 29 20 18 13 11 10 8 8 10 10 10 10 11 14 24 37 51 44 40 34 16 10 9 10 9 6 6 5 4
80 81 81 95 100 100 100 100 72 66 74 54 66 71 59 29 20 19 15 13 11 8 9 10 10 11 12 14 23 33 48 46 48 46 30 17 11 11 11 9 6 6 5 4
95 96 90 97 100 100 100 96 55 62 62 58 54 62 54 28 20 19 15 13 12 9 10 11 12 12 14 17 30 42 47 50 53 46 27 16 12 13 14 10 7 8 7 5

GFSNGP_250_rhum_108.txt.gz
RH
53 53 54 56 58 63 65 65 61 56 53 47 46 45 44 43 42 41 40 34 37 41 39 35 33 26 21 15 15 19 33 44 46 42 34 29 22 19 16 15 16 16 16 16
32 31 40 52 54 51 53 55 58 60 62 58 55 50 47 45 45 45 44 45 42 40 40 40 43 43 46 50 46 40 39 42 49 53 51 53 56 63 63 60 62 53 43 51
66 63 53 42 36 39 49 53 53 57 60 63 62 63 62 58 48 45 44 41 37 35 36 40 42 42 42 45 47 48 45 43 41 38 40 45 49 50 61 73 78 77 58 51
69 82 84 62 56 47 37 29 46 57 50 53 58 61 64 66 62 60 59 58 55 52 49 46 43 41 42 44 46 48 51 54 56 56 54 56 58 58 60 63 66 64 65 62
79 75 72 79 84 67 54 55 39 27 33 42 49 56 59 63 70 72 75 76 75 70 65 59 54 52 47 46 46 45 46 49 50 53 55 57 57 57 57 59 60 63 65 66
74 87 84 72 80 86 75 64 50 45 33 36 54 68 69 65 60 60 63 70 74 80 81 78 80 76 70 68 66 66 69 69 66 62 58 57 59 61 64 69 72 75 75 80
80 81 88 90 74 73 71 76 71 60 52 45 37 38 42 64 86 81 69 63 65 72 79 80 82 80 76 71 68 67 66 68 67 67 68 69 69 69 70 70 72 72 71 71
69 74 76 86 92 87 78 70 70 76 75 65 64 55 41 32 30 34 54 79 80 71 69 76 82 86 86 85 85 83 79 71 65 62 62 63 66 70 72 73 72 70 68 68
60 56 57 65 66 78 76 73 70 64 74 86 77 64 68 64 42 29 24 20 21 36 60 70 71 70 71 75 78 81 83 84 84 81 76 68 62 62 61 57 58 57 54 52
63 57 53 61 67 72 80 82 69 72 72 68 77 87 86 64 66 74 55 31 21 18 15 16 22 36 53 62 70 74 74 75 78 72 68 66 65 62 60 59 48 38 37 39
92 77 62 58 51 51 56 66 81 80 77 74 71 67 67 82 79 56 62 74 55 30 21 17 15 13 14 19 26 39 54 56 58 61 64 65 66 70 65 48 40 46 59 45
90 91 72 77 66 54 49 58 80 82 82 74 72 72 68 64 60 54 45 42 55 58 39 23 17 15 14 12 10 10 11 15 14 15 24 36 38 29 27 44 42 23 12 9
71 65 95 85 80 64 51 59 73 74 88 82 75 72 73 71 62 56 50 34 38 42 38 22 15 14 12 10 9 8 7 8 8 8 8 8 10 11 10 9 7 6 6 6
95 81 86 94 68 71 78 67 68 68 79 77 76 74 71 70 68 64 61 41 33 39 39 32 17 11 10 8 7 6 6 6 6 6 6 6 6 6 6 7 7 6 6 6
83 80 71 76 68 70 87 64 58 59 70 69 80 72 71 67 72 72 64 42 28 31 28 21 14 10 8 6 5 5 5 5 5 5 5 6 6 6 6 6 6 6 7 8
87 92 99 86 70 70 77 74 56 75 66 65 68 85 76 65 66 71 63 40 23 18 16 13 12 10 8 6 5 5 5 5 5 5 5 6 6 6 6 7 7 8 9 8
100 88 80 67 61 88 74 70 71 86 76 81 74 75 89 68 58 60 59 43 20 16 13 11 11 10 7 5 5 4 5 5 5 5 6 6 7 7 8 9 10 9 9 12
100 93 88 89 71 80 88 88 89 96 91 85 77 82 76 78 58 54 54 46 27 17 14 10 10 8 6 6 5 5 5 6 6 7 8 8 9 10 11 10 9 12 15 9
100 100 98 96 88 84 87 88 76 84 73 78 85 87 73 80 59 47 49 45 40 20 14 11 10 8 6 6 6 6 7 7 8 9 10 10 11 11 11 13 18 16 6 5
94 94 99 100 96 99 94 92 83 98 80 78 85 87 81 75 65 46 43 36 38 30 15 12 10 8 7 7 7 7 8 8 9 10 12 13 14 18 19 22 14 6 6 6
97 83 81 91 96 97 98 94 89 100 88 90 86 87 87 80 74 47 44 31 34 34 17 12 11 9 8 8 8 8 8 9 11 13 15 23 24 24 26 15 6 7 7 6
74 72 68 70 71 82 92 90 97 100 99 94 99 90 87 88 83 47 43 34 29 32 20 12 10 8 8 9 9 8 9 11 14 18 30 30 30 31 20 8 7 8 7 5
61 60 61 61 66 88 88 92 100 100 95 96 96 88 89 87 84 41 32 32 28 29 25 14 11 10 10 11 10 10 12 17 22 31 37 36 37 30 10 8 8 9 7 5
76 52 59 79 80 86 98 95 97 98 98 90 89 87 88 86 83 35 30 30 27 28 27 16 12 11 12 12 12 12 16 23 31 40 40 41 37 20 9 8 9 9 7 6
80 91 89 93 85 84 83 94 96 97 100 92 91 90 84 87 77 31 25 26 25 25 27 16 13 12 14 13 13 14 20 30 38 42 41 42 31 16 9 10 11 10 7 7
95 100 97 100 99 94 85 93 95 99 100 90 90 93 85 87 52 25 23 23 23 25 24 15 14 13 15 14 14 15 19 39 47 39 44 41 27 16 11 12 12 11 7 8
86 94 100 100 100 100 97 87 97 100 100 87 89 83 78 72 31 23 22 21 19 23 21 15 14 13 14 14 14 15 20 42 59 45 47 39 27 16 13 15 14 12 8 8

GFSNGP_250_rhum_111.txt.gz
RH
84 78 80 76 57 48 46 51 49 48 43 42 42 42 45 51 57 58 58 57 57 57 56 55 50 46 44 36 27 23 19 28 36 36 34 28 22 17 15 16 15 15 15 15
91 86 85 88 79 74 62 49 36 34 46 56 54 51 49 50 51 50 49 51 56 62 63 60 59 57 56 54 53 52 48 40 35 42 55 57 55 59 59 55 52 47 44 36
75 72 73 78 88 87 77 63 64 58 33 21 30 51 67 69 67 62 60 57 54 52 53 52 55 58 58 56 54 53 54 54 53 51 50 48 49 50 57 50 55 60 62 65
63 62 65 72 76 74 70 68 74 70 66 58 41 26 24 26 39 50 60 67 64 57 56 55 57 56 50 48 51 56 58 54 51 49 49 50 51 50 49 48 47 49 57 60
55 63 66 62 62 67 68 64 68 74 74 68 64 68 67 57 44 32 25 24 34 52 58 52 52 56 62 67 68 65 60 57 61 61 56 51 48 49 50 51 51 52 56 59
64 47 43 44 48 45 50 53 61 61 62 66 71 69 65 63 60 70 75 63 46 33 28 30 47 60 58 56 58 62 69 76 77 74 72 68 66 68 67 66 64 64 62 60
63 50 54 47 43 46 45 48 57 58 65 66 57 60 66 67 70 74 68 54 54 67 73 63 39 25 23 39 56 62 67 68 68 68 68 73 74 76 76 73 70 71 70 72
55 52 47 51 64 42 44 44 41 42 44 52 63 64 58 53 58 64 64 68 69 58 46 46 55 56 47 29 18 16 22 38 50 59 61 63 62 64 63 63 65 70 74 77
60 55 57 50 53 51 40 39 38 37 36 38 40 47 62 66 55 49 56 56 57 60 60 46 38 40 50 53 40 25 18 14 12 13 19 34 39 44 51 51 48 48 51 54
67 68 56 59 48 50 46 48 40 41 45 43 40 44 54 57 62 66 51 45 45 42 49 38 30 29 34 40 42 36 23 13 12 12 11 9 9 9 10 16 28 38 46 56
88 89 82 62 66 68 72 66 63 57 63 48 48 53 38 49 61 65 65 58 42 37 36 36 28 22 19 19 18 16 16 14 11 10 9 9 8 7 6 6 7 8 10 12
90 99 93 85 80 93 90 92 85 79 73 79 56 56 60 44 48 66 63 61 52 43 35 31 35 26 17 14 12 11 11 10 9 9 8 7 6 6 6 6 6 6 6 7
91 90 97 100 100 100 100 98 90 88 86 70 65 62 64 60 56 66 74 68 67 52 42 32 25 29 23 16 13 11 10 9 8 6 6 5 5 5 5 4 5 5 5 6
100 91 94 100 100 100 100 100 100 100 97 94 83 71 73 65 56 70 70 79 76 70 49 38 33 26 28 19 13 10 9 8 6 5 5 5 5 5 5 5 5 5 5 5
100 100 100 100 100 100 100 100 100 100 93 99 97 78 68 65 65 69 76 85 82 80 69 40 37 25 24 18 12 10 8 6 5 5 4 5 5 5 5 6 6 6 6 6
100 100 100 100 100 100 100 100 100 100 95 88 86 79 73 69 69 68 79 85 86 78 74 45 31 22 21 16 12 10 7 6 5 6 6 6 6 6 7 7 8 8 8 8
81 89 94 95 92 96 100 100 99 99 90 85 88 80 77 69 73 74 74 77 81 76 74 53 30 23 20 16 11 10 8 6 6 6 6 7 7 7 8 8 9 9 9 8
88 80 73 66 64 55 50 55 63 81 88 83 93 90 80 79 79 80 71 75 89 81 77 60 32 23 20 18 12 9 8 7 7 7 7 7 8 8 10 10 11 14 15 15
80 76 68 65 60 68 68 61 67 80 97 96 100 100 88 85 84 82 81 74 89 87 78 58 31 23 22 21 14 11 9 8 8 8 9 9 9 10 14 18 17 17 16 7
60 58 59 64 66 68 70 67 61 64 88 100 100 100 100 96 88 84 76 76 90 87 70 59 30 22 23 25 16 13 11 10 10 10 11 11 12 13 18 18 20 18 6 5
41 46 51 51 54 58 56 66 72 73 86 100 100 100 100 94 85 88 84 75 88 82 62 64 27 23 22 27 19 14 12 11 10 11 12 15 15 25 25 23 21 8 6 7
36 43 50 58 56 57 61 68 80 86 100 100 100 100 100 100 86 84 81 80 92 82 59 57 26 22 22 27 22 15 14 12 11 11 12 20 21 30 30 27 15 8 9 9
47 55 59 58 57 57 68 71 79 100 100 100 100 100 100 100 81 80 71 88 90 77 59 50 24 22 22 25 23 15 14 13 12 11 13 23 30 38 34 28 12 9 11 10
50 62 61 62 67 66 75 55 85 97 91 98 100 100 100 86 78 71 73 94 88 74 58 46 22 21 24 25 23 16 15 13 12 11 13 26 33 42 40 27 12 11 13 11
40 36 40 52 58 74 50 43 95 93 56 71 97 99 84 70 65 78 88 92 70 67 57 39 20 21 24 27 24 16 15 14 12 11 12 26 36 46 42 25 12 14 14 11
29 35 41 56 62 40 50 73 85 61 54 95 92 76 65 58 67 87 97 73 52 54 51 27 18 20 25 27 22 16 15 15 13 11 14 34 42 49 44 23 12 17 16 11
24 22 22 25 24 27 47 45 31 54 73 79 58 55 56 53 75 93 90 42 46 51 34 19 18 20 25 25 18 16 15 15 12 11 16 38 47 52 44 21 13 20 17 12

GFSNGP_250_rhum_114.txt.gz
RH
61 60 60 62 60 58 53 51 50 54 58 52 45 39 30 30 35 44 55 62 68 70 70 69 67 64 62 62 57 52 49 47 46 46 42 32 28 37 45 44 34 18 13 12
51 49 46 47 58 60 60 61 66 62 58 53 49 50 48 46 46 43 37 32 27 24 24 30 45 62 68 66 65 66 64 60 58 53 49 49 48 48 43 38 34 38 46 49
34 33 37 38 41 40 39 38 41 45 48 51 57 56 56 53 54 56 55 54 50 46 45 45 38 27 21 25 40 54 62 64 64 67 65 62 57 52 49 52 53 48 48 47
35 32 32 33 33 32 34 36 34 34 34 37 45 52 54 54 52 53 54 54 56 55 50 43 38 36 41 43 38 27 21 22 32 46 56 59 60 62 63 59 56 56 56 55
36 38 40 40 41 44 46 54 63 57 49 42 46 52 54 52 61 61 61 53 52 57 61 54 48 48 41 33 32 36 40 37 28 18 16 22 35 48 53 53 52 51 52 51
44 34 46 45 55 63 68 60 70 71 70 66 60 51 54 54 55 61 79 74 68 61 54 58 65 65 60 48 33 29 30 32 40 44 39 28 19 16 17 28 36 44 46 49
55 54 43 42 50 60 61 73 73 73 66 67 65 61 50 40 49 48 57 71 88 80 70 51 45 48 57 47 34 29 24 21 22 25 29 33 32 23 16 14 13 13 21 31
94 78 71 72 65 69 74 81 86 74 75 66 68 67 62 60 41 44 47 49 67 82 80 77 54 43 34 29 30 32 28 23 18 15 13 11 11 12 16 16 11 10 11 10
99 93 93 86 92 96 91 80 82 86 94 85 79 71 69 66 63 55 53 54 51 64 74 77 74 59 38 30 26 24 24 25 23 17 14 12 10 8 8 9 9 10 9 10
100 99 100 100 100 100 100 100 100 94 89 97 81 85 77 79 69 60 56 48 50 60 66 73 72 68 58 34 26 23 22 21 20 16 12 10 9 8 7 7 7 8 8 8
100 100 100 100 100 100 100 100 100 100 100 100 100 100 94 82 80 80 66 59 48 51 65 74 71 76 70 53 32 21 20 19 17 13 10 8 7 6 5 5 5 5 5 6
95 100 100 97 98 88 92 96 87 99 100 100 92 80 74 66 68 70 80 66 58 56 62 70 72 72 77 63 45 22 19 17 16 12 8 7 5 4 4 4 4 4 4 5
100 100 100 100 100 98 95 88 91 98 92 86 71 75 77 79 71 64 71 88 70 67 70 71 78 80 80 72 56 26 19 16 14 11 9 7 6 5 5 5 5 6 5 5
100 100 100 100 99 100 100 100 95 89 88 87 90 88 91 95 89 83 86 76 74 72 71 80 83 87 80 76 66 32 20 17 14 10 8 7 7 7 6 6 6 6 7 8
100 100 100 100 100 100 100 91 100 100 89 90 88 92 89 90 88 90 93 85 82 78 80 87 86 86 79 81 66 42 21 19 15 12 10 8 8 8 7 6 6 7 7 7
68 78 88 93 94 96 94 87 78 78 73 72 73 75 80 92 95 92 91 88 82 88 82 86 89 91 80 83 62 47 24 20 18 14 12 10 9 9 9 8 9 9 9 11
41 46 56 62 65 61 54 54 50 46 51 58 61 68 76 80 96 96 98 91 86 89 80 86 88 96 80 80 68 54 26 22 19 16 13 11 11 10 9 9 8 9 16 17
61 60 49 42 38 41 42 43 48 47 45 53 58 72 80 83 83 89 100 93 85 78 78 85 89 96 81 79 72 56 30 23 19 17 14 12 12 11 10 11 14 17 18 22
51 43 43 41 44 41 49 68 71 81 71 64 63 73 90 92 88 86 100 93 87 78 78 81 86 92 84 75 70 55 34 23 20 18 15 13 13 12 10 12 20 20 24 24
66 56 52 52 54 58 44 57 75 62 60 63 64 76 96 86 93 100 100 91 83 82 85 78 80 85 86 66 63 52 31 23 22 18 16 14 14 13 11 12 22 21 24 18
52 54 52 42 39 48 50 44 47 48 63 67 72 78 89 82 88 100 100 84 86 81 88 78 78 80 84 66 53 47 28 22 23 20 17 14 14 14 11 11 20 23 24 14
28 32 31 32 32 32 38 35 39 52 69 70 67 82 72 70 96 99 96 94 74 77 88 70 68 75 82 74 50 46 26 23 23 22 16 14 14 14 11 12 22 25 24 12
16 21 19 19 22 26 29 36 44 47 51 44 60 61 53 59 95 92 93 79 51 73 78 63 65 75 78 71 49 39 22 23 22 22 16 15 16 14 12 14 27 29 22 12
17 17 14 14 17 20 23 36 37 40 38 45 53 50 55 69 72 81 83 41 46 62 58 58 66 81 73 51 43 28 20 24 22 21 16 17 17 14 12 16 30 31 19 13
10 11 12 14 16 18 22 28 24 27 39 43 39 43 52 48 68 69 47 32 48 46 45 51 73 76 55 42 34 22 20 22 22 18 16 16 17 14 12 19 33 32 18 14
8 9 8 8 9 11 14 14 17 26 30 31 31 29 32 40 64 53 28 30 37 37 39 56 69 58 45 35 26 19 19 20 19 17 16 17 18 13 12 24 36 33 20 18
6 7 7 7 9 10 11 13 15 18 21 22 22 20 22 41 41 30 28 31 28 30 37 52 52 42 33 27 20 18 18 19 18 17 16 17 17 12 13 30 38 31 19 20

GFSNGP_250_rhum_120.txt.gz
RH
46 46 45 42 59 56 55 54 51 70 74 73 73 71 63 53 48 50 54 59 59 64 58 57 58 65 68 69 70 66 59 52 36 25 24 23 22 21 20 18 18 27 30 21
43 40 61 62 67 64 75 61 48 44 50 47 56 62 66 68 65 60 65 65 66 68 68 63 67 63 61 66 72 71 69 66 59 54 38 30 25 22 20 20 20 18 16 16
33 43 43 65 65 60 61 72 64 57 52 58 68 66 68 73 80 77 68 61 60 57 64 73 72 70 70 67 64 64 62 59 63 58 56 57 50 31 23 21 20 19 19 18
44 44 40 35 52 63 73 72 72 70 64 61 61 60 56 57 59 63 66 68 77 72 63 57 58 61 65 71 70 64 62 65 60 57 56 54 51 41 27 21 18 18 17 16
45 55 62 65 62 68 74 78 81 91 95 96 83 71 72 70 69 74 69 65 59 58 59 57 55 54 59 57 67 69 64 63 63 64 55 55 49 39 30 24 18 15 14 12
54 75 79 61 93 100 100 100 100 100 100 100 100 100 100 100 100 100 100 90 82 70 61 56 52 54 58 66 74 71 71 64 64 61 62 55 48 42 37 27 20 13 12 11
100 87 76 97 100 100 100 100 100 100 100 100 100 100 100 100 100 100 98 92 76 69 64 69 63 62 69 63 68 80 76 74 68 67 64 57 52 46 41 32 23 15 11 10
98 100 100 100 100 100 100 96 93 89 81 73 73 75 78 83 80 71 69 67 67 64 60 61 63 70 66 75 72 78 81 74 68 68 69 59 52 54 38 31 26 18 12 10
100 100 98 98 100 99 95 90 82 68 62 57 66 61 59 66 63 77 72 66 71 75 67 64 68 74 74 79 74 82 80 80 70 66 72 69 54 57 47 31 27 18 13 11
70 60 87 82 80 67 69 73 76 76 77 61 63 80 97 77 72 75 90 85 84 77 65 81 75 78 74 80 75 78 84 86 80 62 66 72 61 52 55 38 28 19 14 13
60 49 66 86 73 94 100 96 90 90 78 72 75 85 79 78 69 68 72 81 81 92 95 96 93 84 84 79 86 82 80 86 84 69 63 65 70 50 57 47 30 21 14 14
71 68 79 100 90 91 94 91 90 93 78 58 56 60 58 59 58 60 73 75 97 99 100 95 86 91 91 83 81 90 83 86 88 79 66 61 66 51 57 50 30 21 15 14
89 93 97 100 100 92 82 74 74 72 77 78 84 70 58 59 58 54 75 73 82 100 100 100 100 84 83 86 73 79 80 80 81 84 77 66 68 58 57 49 30 20 15 14
70 82 100 99 88 75 70 70 60 58 60 59 73 74 71 87 81 81 81 82 91 100 98 100 100 95 78 89 76 66 74 75 72 82 80 68 66 59 62 58 29 18 14 13
75 78 72 65 60 63 67 58 54 61 59 56 74 93 97 83 80 89 79 86 96 98 94 100 99 82 65 94 80 66 79 76 78 85 80 74 64 58 60 62 30 19 14 13
79 76 66 56 68 62 69 60 82 84 98 97 79 85 80 67 72 59 64 78 88 68 64 68 97 71 61 93 70 63 74 74 89 88 84 74 66 60 61 60 30 19 15 15
100 100 89 63 55 64 64 59 68 90 85 82 68 57 55 61 61 52 52 55 80 93 64 56 61 54 69 72 52 57 69 68 89 88 83 69 57 60 59 56 30 19 16 15
64 48 47 56 55 56 55 64 79 79 86 85 94 66 46 40 46 48 50 42 53 62 72 46 42 42 59 54 41 63 64 64 78 81 80 67 56 57 55 54 29 19 15 14
53 68 67 52 49 61 73 68 72 68 68 61 42 36 36 34 41 31 25 34 42 50 35 27 31 47 44 35 39 61 62 63 64 65 72 64 57 55 59 49 26 18 16 15
86 82 77 69 74 82 84 72 75 46 35 27 25 25 20 20 16 18 18 21 24 22 19 28 33 30 32 27 38 51 55 56 54 58 68 59 56 52 58 36 23 16 15 15
86 76 87 96 94 79 68 34 24 20 20 18 13 11 12 16 13 12 12 11 15 13 18 21 22 21 22 25 41 47 50 42 42 49 60 56 50 53 52 30 22 16 16 14
76 67 82 75 48 51 33 20 15 12 9 11 10 10 11 10 8 9 10 10 9 10 13 14 15 17 19 30 41 44 44 39 35 47 50 44 44 53 39 27 19 17 16 14
55 61 28 18 21 20 14 12 8 7 8 8 8 8 7 7 8 8 8 9 9 9 11 13 16 18 22 30 34 38 39 28 30 41 42 37 48 48 31 24 18 17 17 15
17 17 14 14 11 9 8 8 7 7 6 6 7 6 7 7 7 6 7 7 8 9 11 12 10 14 17 22 26 28 23 21 36 36 33 37 46 34 28 20 18 17 17 16
12 10 9 8 8 7 7 7 7 7 6 6 6 6 6 6 6 6 6 7 8 8 9 10 11 14 16 19 20 18 18 27 30 30 32 38 32 26 23 18 17 18 18 16
9 8 8 7 7 7 7 7 7 7 6 6 6 5 5 5 5 5 5 6 8 8 8 10 12 13 15 15 15 16 23 27 25 28 31 26 23 24 18 16 16 18 18 14
7 7 7 8 8 7 7 7 7 8 6 6 6 5 5 5 5 5 5 6 7 8 10 10 12 13 13 13 15 21 21 21 26 28 20 19 23 20 16 16 18 17 17 11

GFSNGP_250_rhum_123.txt.gz
RH
27 31 32 32 39 41 40 50 57 66 72 72 68 65 59 52 56 58 51 49 60 68 69 67 61 54 49 46 46 44 45 55 62 60 59 57 56 53 48 45 40 36 33 23
30 33 37 47 56 68 73 82 82 90 96 96 88 95 98 93 93 87 89 88 95 93 89 81 71 65 60 59 55 49 46 48 53 59 60 61 62 59 54 49 45 42 38 32
25 25 30 31 34 39 74 63 77 93 100 100 100 100 94 80 81 74 75 74 71 72 72 73 75 81 71 62 59 56 48 47 51 65 71 65 60 58 60 51 42 40 36 32
58 50 57 49 48 63 69 67 74 100 100 100 91 77 75 74 68 72 81 80 71 81 76 85 65 63 72 75 75 66 60 53 54 61 69 71 65 62 60 54 46 37 35 30
80 78 80 75 80 99 100 100 100 100 100 96 92 91 94 89 85 92 89 88 92 88 77 76 68 84 71 73 78 80 75 80 77 74 65 66 62 62 60 60 58 52 37 29
91 68 100 85 100 100 100 100 92 93 85 88 91 95 81 75 74 70 80 85 83 70 63 59 60 62 76 81 81 85 87 90 82 81 78 76 68 57 65 55 55 53 40 32
60 74 73 99 100 100 95 83 82 90 94 100 91 80 84 94 85 79 72 64 62 64 59 62 67 63 75 76 82 80 91 94 91 87 72 83 82 70 64 55 49 50 42 31
48 55 66 78 66 47 49 58 72 96 88 84 79 71 78 83 84 72 65 62 60 74 80 64 72 80 86 86 88 80 83 99 93 88 90 79 86 78 65 55 50 50 45 37
66 64 73 95 92 80 72 76 74 67 72 84 89 88 92 92 86 70 58 50 48 54 68 71 72 91 96 97 98 91 96 90 85 90 97 83 80 82 64 58 58 54 48 45
100 98 100 100 98 88 81 78 84 97 100 100 100 99 89 85 78 63 63 61 63 69 76 86 93 96 86 100 99 100 81 77 70 75 86 86 65 83 70 64 63 58 53 49
94 100 100 100 100 90 79 75 54 54 77 97 92 90 80 72 81 71 62 82 100 99 91 97 94 80 72 83 86 97 100 88 76 74 74 82 70 77 73 66 67 63 56 50
100 93 89 100 95 86 71 68 55 58 69 79 74 62 70 69 77 78 79 79 95 98 100 100 99 96 83 85 82 87 97 89 75 62 69 78 72 75 78 71 72 67 56 50
100 99 93 100 85 65 61 65 63 65 65 62 86 80 79 76 85 87 84 99 100 100 95 100 99 100 89 88 52 67 80 83 96 60 53 72 69 69 73 68 71 65 52 44
100 100 100 100 98 83 69 70 88 91 80 81 72 73 90 89 75 82 97 99 99 99 100 98 100 94 82 67 67 63 66 62 78 57 55 71 62 77 81 58 62 56 50 45
100 100 99 88 85 86 99 100 100 91 88 71 81 86 78 83 86 84 100 100 99 89 60 49 60 52 45 46 54 47 45 54 49 37 66 70 55 74 81 59 59 59 51 41
100 100 90 85 85 75 100 100 96 90 86 97 96 99 98 97 88 90 94 93 94 61 34 31 32 30 29 24 27 28 32 38 30 36 60 53 50 76 72 56 53 55 56 51
100 94 92 100 100 100 95 89 96 100 100 100 100 100 100 80 86 83 43 38 36 32 21 19 16 14 16 19 26 27 31 24 30 50 51 47 51 72 69 55 47 50 53 53
96 94 100 94 99 100 100 100 100 100 100 100 100 96 73 61 72 67 35 25 22 16 17 16 12 14 17 17 21 24 20 32 45 42 41 43 55 68 59 55 42 48 51 49
90 89 92 100 98 95 93 96 89 83 78 70 65 58 56 41 25 16 16 15 12 9 10 9 10 11 11 16 16 14 18 28 26 27 32 37 58 58 58 44 38 49 49 50
86 78 65 65 62 65 63 66 73 59 51 39 36 31 32 18 14 14 13 10 9 8 8 10 10 8 9 13 10 12 14 19 21 22 24 38 49 54 52 33 43 49 47 52
50 51 44 43 48 54 61 48 35 23 22 24 27 21 14 12 10 10 9 8 7 7 7 7 7 7 8 9 10 11 12 16 19 20 23 38 42 45 36 32 49 43 49 42
39 35 34 31 28 22 20 18 17 17 18 19 15 11 9 8 8 8 8 8 7 7 7 6 6 7 7 7 9 11 12 16 18 22 30 31 34 33 25 45 40 42 45 29
19 18 18 18 16 14 13 12 13 13 12 11 10 8 7 8 8 8 7 6 6 6 6 6 6 6 7 8 8 10 13 14 18 24 23 25 26 21 34 34 35 46 32 25
16 13 12 12 10 9 9 10 10 10 9 9 8 7 7 8 8 6 6 6 6 6 6 6 5 6 6 8 8 10 11 12 16 17 18 19 18 28 28 29 40 32 23 24
8 8 8 7 7 7 6 7 8 8 8 7 7 7 8 7 7 7 6 6 6 6 6 5 5 6 7 8 8 9 10 13 14 15 16 17 25 22 24 34 27 22 23 21
8 8 8 8 7 7 7 6 7 7 6 7 7 6 7 7 6 8 7 7 6 6 6 5 6 6 6 7 8 10 12 13 14 14 16 21 19 20 30 25 19 21 22 18
8 8 7 7 6 6 6 6 6 6 5 6 8 7 7 6 7 7 7 7 7 6 7 5 6 6 7 8 9 11 12 13 13 15 18 17 18 27 23 17 19 21 18 16

GFSNGP_250_rhum_126.txt.gz
RH
22 20 25 24 23 29 32 32 43 44 59 73 70 86 76 69 67 74 80 80 77 71 75 83 82 75 71 67 65 75 88 81 90 96 87 78 71 62 54 68 73 67 60 50
32 38 39 41 41 34 34 40 58 66 79 88 100 93 86 71 76 75 68 69 66 66 69 69 57 59 64 57 56 65 66 72 74 73 91 95 98 92 76 63 61 72 73 62
63 62 63 55 61 49 65 82 92 91 99 92 84 76 67 56 61 61 62 58 58 61 57 54 53 48 45 45 47 67 73 81 80 86 80 86 94 96 83 80 74 66 67 64
51 36 59 90 77 74 74 89 92 88 74 58 62 59 62 80 79 70 66 57 60 57 66 65 54 51 46 55 70 91 93 98 98 99 96 87 82 88 92 83 78 75 63 62
44 42 37 73 58 74 59 74 64 44 48 52 68 85 80 98 92 88 77 66 86 93 81 74 62 61 60 66 88 94 98 100 100 100 98 98 100 88 75 78 80 80 65 61
70 59 54 44 68 80 88 95 56 46 54 73 74 69 72 64 72 87 100 100 100 94 78 79 76 78 85 95 89 80 90 93 99 100 97 97 74 83 82 68 60 77 74 60
100 87 61 57 97 98 95 100 67 71 90 86 79 68 63 56 58 87 93 77 87 99 82 72 91 92 92 97 100 100 96 100 98 100 90 83 100 94 81 80 63 58 72 64
100 93 91 100 100 100 100 90 75 99 95 88 88 81 76 58 59 60 58 86 100 87 79 99 100 100 99 88 93 100 100 97 99 98 96 84 81 90 84 69 70 60 66 62
99 98 76 100 100 99 64 71 100 99 92 85 97 84 70 67 76 81 87 94 93 100 100 96 100 99 99 100 100 100 100 100 100 100 89 89 68 75 87 67 63 56 66 64
76 80 60 86 98 73 77 99 93 92 100 100 100 99 73 80 93 98 100 99 87 83 94 100 95 98 99 100 100 100 94 94 84 74 80 83 56 72 75 68 70 64 69 66
100 100 99 80 73 78 98 95 100 100 100 100 86 83 94 94 95 99 92 95 100 99 100 100 100 99 95 91 100 96 91 60 55 55 54 69 51 54 56 73 78 61 67 68
100 100 100 100 90 71 100 100 100 100 100 100 88 92 100 92 100 92 94 95 86 90 84 98 99 98 94 97 97 89 72 58 37 32 42 48 50 54 48 73 78 59 73 72
100 79 90 100 100 99 99 100 100 100 99 100 100 97 100 100 86 81 82 90 81 79 84 81 92 99 100 99 88 58 36 31 29 29 32 35 33 35 58 64 52 54 78 77
100 100 100 100 100 100 100 100 100 100 100 100 100 100 100 98 100 100 99 85 84 86 92 93 100 100 97 91 64 27 21 21 25 21 15 20 26 38 47 38 35 69 77 62
87 81 96 100 100 100 100 100 100 97 96 100 100 99 100 96 91 77 78 93 98 97 89 91 95 86 53 41 22 18 18 16 18 14 17 21 27 32 28 29 56 68 59 49
100 100 96 96 92 96 75 77 100 100 100 100 100 100 100 96 80 71 75 81 80 77 66 62 52 34 27 16 13 13 11 11 13 14 16 21 26 23 25 43 56 48 45 42
100 100 100 100 100 100 100 87 88 99 99 89 82 78 80 79 66 60 56 52 51 40 27 23 22 22 15 12 10 10 10 11 12 13 14 23 21 18 25 38 32 28 31 46
80 78 74 81 86 79 75 65 67 70 63 52 44 40 41 36 41 44 36 26 21 18 16 18 17 12 9 9 8 9 10 10 13 10 11 16 17 14 19 23 23 24 31 45
55 53 61 65 58 51 45 39 41 39 36 37 36 38 38 36 32 22 18 17 18 13 13 12 12 8 7 8 8 8 8 8 9 9 10 10 12 12 14 18 20 24 37 34
49 47 39 34 35 31 25 24 22 20 18 18 19 20 20 20 17 16 14 14 13 10 10 10 8 7 7 7 8 8 8 8 9 9 9 10 11 11 14 18 23 34 32 31
39 30 26 23 23 21 16 18 18 17 16 14 13 14 14 16 14 14 11 9 10 9 9 8 8 7 7 7 7 7 7 8 8 8 8 9 10 11 15 18 28 26 27 23
19 18 16 16 15 13 16 16 15 14 13 13 14 13 12 10 9 8 8 7 9 8 8 8 8 6 6 7 7 7 7 7 7 7 8 8 10 12 14 18 21 24 21 31
16 16 14 13 12 12 13 13 12 12 12 11 9 8 8 7 7 7 8 8 7 7 8 8 7 6 6 7 7 7 8 7 6 7 8 9 10 12 14 16 18 19 27 25
14 12 12 11 10 10 10 9 8 8 8 8 7 7 6 6 7 6 6 7 7 8 7 8 7 6 6 8 7 6 7 7 6 8 8 10 11 13 14 16 17 22 22 21
9 8 8 8 7 7 7 7 7 8 7 7 7 6 5 5 6 7 6 6 6 7 8 7 6 7 8 8 7 7 6 6 6 8 9 10 12 13 15 15 18 19 19 23
9 9 8 8 8 8 8 8 8 8 7 8 8 6 6 5 5 5 6 6 6 6 7 7 7 8 8 7 7 7 6 6 7 8 10 12 13 14 14 16 17 18 20 19
10 10 10 10 9 8 9 8 7 7 7 6 8 7 6 6 5 5 6 6 6 6 7 7 7 8 7 7 6 6 6 7 8 10 12 12 12 13 14 15 15 16 16 18

GFSNGP_250_rhum_129.txt.gz
RH
36 48 40 40 42 43 40 44 64 79 83 86 85 53 56 52 47 55 52 63 77 93 87 89 80 80 74 66 64 70 70 78 90 83 82 90 97 100 100 100 94 90 89 78
53 56 69 60 63 60 62 71 71 71 67 33 31 34 43 42 48 53 59 62 59 84 88 99 79 78 86 69 63 73 76 76 81 76 72 86 80 74 79 86 85 79 79 73
56 43 43 66 91 81 62 64 78 74 71 59 55 65 67 84 63 61 71 55 54 60 70 67 77 96 87 92 86 77 92 97 95 99 91 90 97 96 95 90 91 89 86 78
65 68 62 58 62 60 66 67 72 68 50 50 70 76 43 67 84 72 67 71 71 67 69 76 82 98 90 95 100 94 95 98 100 100 97 100 100 99 97 86 88 78 77 80
84 83 65 68 67 86 69 68 100 82 50 63 78 100 73 64 70 82 90 99 74 63 73 87 89 97 91 90 88 90 87 91 99 99 100 98 99 99 98 98 90 81 63 76
45 40 50 68 79 74 64 64 65 56 66 48 71 70 88 76 72 72 72 69 77 74 73 85 95 86 99 100 98 91 93 92 99 99 100 89 94 98 100 100 70 71 63 64
64 78 77 70 98 99 65 57 45 55 62 67 54 86 100 100 100 98 100 99 100 99 100 100 94 86 80 81 75 89 78 88 85 90 85 80 98 100 96 98 95 75 48 58
62 66 87 99 100 100 100 100 100 95 71 65 88 100 100 100 100 100 100 100 97 67 81 70 77 85 93 99 93 99 92 84 84 88 96 99 100 100 92 89 66 40 40 46
100 99 92 68 81 94 96 100 100 100 100 100 99 83 77 100 100 100 100 99 100 100 90 74 79 93 100 100 100 100 100 93 93 98 99 100 98 86 68 48 23 26 32 40
100 100 100 100 100 74 46 100 100 100 100 98 98 100 100 100 100 100 100 100 74 80 100 99 81 96 91 96 91 87 89 95 96 98 98 95 91 78 49 25 20 24 30 34
71 78 72 49 62 90 82 80 100 100 100 100 100 100 100 99 100 99 89 77 93 100 90 98 100 100 96 90 81 92 97 96 96 96 88 67 49 31 32 18 18 22 20 21
100 100 100 100 100 100 100 100 100 100 100 100 100 100 93 77 95 88 72 79 99 95 56 100 100 92 70 76 80 94 85 71 77 62 38 28 26 24 16 15 15 16 16 20
90 100 100 100 100 100 100 100 100 97 96 100 99 100 99 92 76 81 79 74 67 67 61 59 58 59 63 58 61 63 59 53 40 23 20 21 18 13 12 11 13 14 16 22
100 100 100 100 100 99 98 98 95 94 100 100 100 100 100 100 100 98 90 92 92 88 84 59 50 47 50 58 58 55 43 28 21 18 16 16 11 10 10 10 12 13 15 21
89 88 87 77 80 93 99 100 99 93 93 91 73 65 73 71 76 65 46 39 36 45 43 40 32 26 29 32 30 26 20 18 14 13 13 10 9 9 10 10 12 12 15 25
87 84 89 100 100 97 95 96 89 80 70 60 56 50 40 37 34 34 29 24 24 26 29 23 20 20 21 20 19 18 17 14 11 11 10 9 9 9 10 12 12 11 14 22
94 80 76 77 80 85 79 67 54 47 43 39 39 38 36 29 24 16 15 15 16 19 20 17 16 16 17 15 14 13 12 10 10 9 9 9 8 9 9 9 10 10 13 16
68 67 64 68 70 64 55 42 35 32 30 31 30 31 26 18 15 14 17 16 15 14 14 12 14 15 15 11 10 10 10 9 10 9 9 9 8 8 8 8 9 10 12 13
90 94 76 70 55 43 43 35 28 26 24 20 19 17 14 15 18 16 16 15 15 13 12 12 12 11 10 9 8 10 9 9 9 9 9 8 8 7 8 8 9 9 10 11
86 70 64 64 50 31 21 18 16 15 14 13 12 13 16 16 15 14 14 13 14 11 10 9 9 8 8 9 9 9 8 8 10 9 8 8 8 7 7 8 8 9 10 10
47 53 51 33 21 17 15 13 13 12 13 13 12 14 14 12 11 10 10 10 10 8 8 8 8 7 8 8 9 8 7 8 10 9 8 8 8 7 7 7 8 9 10 10
37 33 25 15 12 13 14 14 13 13 14 10 10 10 8 8 8 8 8 8 8 8 8 8 6 6 7 9 8 7 7 8 9 9 9 8 7 6 7 8 8 9 11 13
16 14 12 14 15 15 14 12 12 11 9 8 8 8 7 7 7 8 9 8 8 8 8 8 7 6 6 7 6 6 7 9 8 9 9 6 6 6 7 8 10 11 12 13
15 15 15 15 14 12 11 10 9 10 8 8 8 8 8 8 8 8 8 9 9 8 7 7 6 6 6 6 6 6 8 9 8 9 8 6 6 7 8 9 10 11 13 15
14 12 11 11 9 8 9 9 10 10 9 9 8 8 8 7 7 8 9 9 8 8 8 7 6 5 5 6 6 7 8 8 8 8 7 7 7 7 9 10 11 13 13 14
9 9 9 9 8 9 9 9 9 8 8 8 8 7 7 6 6 7 8 8 8 7 7 7 6 6 7 7 8 8 8 8 7 6 7 7 7 8 10 11 12 12 13 17
9 9 9 9 9 10 9 9 8 9 7 7 8 7 6 6 6 7 7 8 9 8 7 6 7 7 8 8 8 8 8 7 6 6 6 7 7 8 9 10 11 14 15 14

GFSNGP_250_rhum_132.txt.gz
RH
39 42 44 55 54 54 51 50 39 54 61 42 38 40 47 55 48 47 56 58 76 59 66 65 53 57 58 75 84 95 96 79 79 76 75 66 74 84 87 97 90 94 90 88
42 51 65 54 38 37 49 50 47 34 27 26 34 42 43 45 63 42 54 59 54 61 82 78 59 68 74 75 75 96 96 86 71 73 77 86 93 100 98 91 88 92 92 85
57 55 42 41 48 48 54 54 61 70 76 63 41 51 34 32 56 67 64 60 66 68 63 72 80 86 98 76 67 75 67 70 89 86 99 99 100 98 94 94 90 96 94 93
70 71 79 61 42 56 68 71 78 68 53 54 76 60 54 45 57 54 88 100 100 97 100 100 100 100 100 94 97 92 70 73 76 88 95 91 97 89 92 100 100 96 91 94
38 37 37 35 35 49 61 80 94 85 71 57 65 73 74 72 67 66 81 86 73 100 99 100 100 100 100 100 99 100 100 100 99 86 91 94 83 97 96 100 100 100 98 100
82 76 91 83 69 57 55 45 41 39 56 79 78 91 100 82 91 100 100 100 94 84 97 80 92 100 100 100 99 96 78 92 100 100 92 91 84 85 94 99 95 98 90 97
76 92 93 97 100 100 100 100 100 98 96 100 85 81 98 100 100 100 100 90 96 100 100 73 64 75 89 100 95 69 63 98 94 77 77 90 97 86 86 95 90 100 77 49
54 53 43 38 51 52 99 100 100 100 100 100 89 68 75 73 83 100 100 98 81 81 89 73 56 51 53 63 69 75 80 86 84 94 90 84 82 83 91 98 98 75 52 30
92 74 72 61 68 65 66 54 39 40 46 67 67 92 100 100 99 93 86 90 88 87 82 65 63 73 89 90 94 100 100 100 98 91 70 66 60 62 88 90 83 45 26 22
62 87 87 68 61 99 82 98 100 100 100 100 100 100 100 100 100 100 100 89 74 75 72 83 100 100 100 100 100 95 80 74 58 53 60 62 54 48 48 47 29 23 18 16
100 99 96 84 85 100 100 100 98 100 100 100 100 100 100 100 97 95 90 98 100 100 100 100 98 90 77 75 73 60 50 51 46 42 42 33 32 33 23 20 19 17 13 13
100 100 100 100 100 100 100 100 100 100 88 79 77 73 82 82 76 83 100 100 94 71 52 60 76 73 60 46 46 49 44 27 24 25 24 21 19 19 17 16 15 12 12 11
100 100 100 91 79 92 88 84 88 90 93 86 82 76 77 82 98 99 84 69 62 63 64 59 46 37 39 42 29 21 20 17 17 18 17 15 16 15 14 13 10 11 10 9
97 94 88 98 99 93 96 98 97 84 68 69 73 79 87 85 75 69 59 52 41 35 31 27 25 24 20 21 19 16 15 14 14 14 13 13 14 13 11 10 10 10 9 10
89 92 90 82 82 76 73 77 82 78 65 58 50 45 48 55 51 49 47 38 29 25 21 20 17 17 15 15 16 14 13 14 14 14 13 12 10 10 9 10 9 9 9 10
92 91 85 88 88 93 97 83 76 68 60 69 72 67 56 48 37 38 36 35 25 18 17 15 14 13 13 12 13 13 12 13 14 12 11 9 10 9 9 9 9 9 9 9
100 97 98 97 88 86 90 84 71 61 58 62 58 55 52 44 38 34 33 35 17 14 13 12 11 10 10 10 10 11 11 10 10 10 9 9 10 10 9 9 9 9 9 10
100 100 100 93 87 80 76 68 62 64 59 49 37 31 27 25 26 29 24 16 16 14 12 9 8 8 8 8 8 9 10 9 9 9 8 8 10 11 8 8 9 9 9 9
76 79 85 80 72 67 68 56 46 42 38 31 26 22 22 20 16 13 14 14 12 9 9 9 8 7 7 8 9 10 10 8 8 8 8 8 10 10 9 9 9 9 10 9
80 61 57 57 54 47 38 36 37 40 35 21 18 16 16 15 14 13 12 10 10 8 9 9 9 9 9 10 9 10 9 8 8 8 8 8 10 9 9 8 9 9 10 10
55 48 39 40 34 30 30 30 32 29 21 14 14 14 13 12 11 9 7 7 9 8 9 10 10 10 10 11 10 10 9 8 7 7 8 8 9 9 9 9 9 10 9 8
34 31 30 29 28 26 25 24 21 14 13 14 14 11 8 8 8 7 8 7 10 10 10 10 10 10 10 10 10 10 9 8 7 7 7 8 8 9 9 8 10 10 8 7
22 22 23 23 21 19 17 16 15 14 13 12 9 8 7 7 7 8 9 8 9 9 10 10 10 10 9 9 9 8 8 7 7 7 7 7 8 9 8 9 9 8 7 7
16 16 15 15 14 14 14 12 12 12 11 9 8 7 7 8 8 7 8 8 9 9 9 9 9 9 8 8 8 8 7 6 6 6 7 8 8 9 10 9 9 8 7 8
14 13 12 11 10 12 12 10 12 11 9 8 8 8 8 7 8 8 8 8 8 9 8 8 8 8 7 8 8 7 6 6 7 7 8 8 9 10 9 8 8 7 8 10
12 11 10 8 10 11 10 10 10 9 8 9 9 8 8 7 7 7 8 8 8 8 8 7 8 8 8 8 6 6 7 7 7 8 8 9 9 8 7 7 7 8 10 11
9 8 8 8 10 10 9 10 8 9 9 9 9 8 7 7 7 7 7 7 7 8 8 8 8 8 8 7 7 8 8 8 8 8 8 7 6 6 6 7 8 10 10 12

GFSNGP_250_rhum_135.txt.gz
RH
46 45 45 43 45 41 41 38 37 38 26 47 26 30 34 34 36 39 33 30 34 40 47 60 83 93 96 79 98 100 100 100 100 100 100 100 100 100 95 90 100 89 81 83
39 35 36 39 35 27 28 31 30 36 34 37 29 38 42 39 41 48 53 55 57 59 65 82 87 78 57 90 100 100 96 93 95 100 100 83 91 81 72 66 81 87 91 95
44 46 35 33 32 28 29 31 32 37 48 51 56 58 50 48 44 76 91 89 73 86 95 98 100 100 100 95 94 100 92 69 74 85 76 71 86 98 87 82 90 97 100 100
42 45 47 33 33 49 50 47 47 42 45 42 57 59 52 52 69 83 75 98 100 100 100 100 100 100 100 100 100 100 89 95 80 73 64 70 76 88 99 100 100 100 88 81
54 63 70 66 60 82 81 81 81 82 77 82 89 82 90 100 100 98 97 62 79 68 75 100 100 100 100 99 96 83 78 87 73 78 97 100 100 100 100 100 98 68 64 60
98 100 94 96 99 99 98 100 98 97 100 100 100 100 100 100 100 100 95 76 82 79 72 67 68 73 80 78 80 100 82 77 100 100 100 100 100 100 98 72 75 53 48 37
54 52 51 50 50 46 51 51 43 41 45 39 37 32 36 48 51 53 53 59 65 64 67 82 83 90 94 92 100 71 97 100 100 100 92 66 60 66 84 88 75 54 37 23
65 69 82 79 65 66 73 76 64 65 62 60 58 65 86 94 96 99 100 100 97 96 97 100 97 92 82 75 71 100 100 100 97 68 73 79 80 73 57 47 38 30 23 18
93 90 69 70 100 100 100 100 99 100 99 99 97 99 100 95 89 86 81 100 100 94 64 48 51 60 70 96 100 100 100 79 81 76 64 62 45 33 30 27 21 19 17 15
76 71 80 81 100 100 100 100 100 100 100 100 97 100 100 100 90 83 84 74 67 80 69 66 69 93 100 95 88 75 62 55 55 54 51 28 22 20 20 20 18 16 14 14
97 97 99 100 100 100 100 100 100 100 100 100 100 100 99 85 80 82 88 93 88 72 69 62 87 96 78 63 56 56 53 51 55 44 30 20 19 19 18 16 15 14 13 12
100 100 100 100 100 100 100 90 72 74 86 98 97 85 80 77 77 70 70 68 63 59 52 50 57 61 62 54 47 44 42 41 43 36 22 18 18 16 15 14 13 12 12 12
75 75 81 78 74 70 63 80 87 81 84 84 77 65 62 70 77 71 65 68 61 52 51 54 54 46 48 38 30 29 32 31 21 20 19 15 14 13 12 12 12 12 10 9
78 73 70 62 65 70 78 81 86 85 85 87 86 82 66 68 65 59 66 72 68 54 54 55 43 35 34 24 21 20 18 19 18 15 13 12 11 10 10 10 9 9 8 9
92 84 81 78 82 91 97 93 94 99 94 98 87 79 77 69 56 47 46 47 50 52 53 44 42 40 25 20 19 16 16 15 11 11 10 10 9 9 8 8 8 8 8 8
98 100 100 100 100 100 100 100 96 91 84 86 88 81 67 60 53 48 41 30 27 28 36 34 24 22 19 18 16 14 13 10 10 10 9 9 9 9 8 8 9 9 9 8
100 100 100 100 99 96 91 88 78 78 76 73 64 61 56 49 40 33 25 26 22 23 22 19 16 17 16 14 12 10 8 9 10 10 9 9 10 9 9 9 8 8 9 9
86 89 94 96 94 90 88 79 73 66 67 60 57 51 47 34 19 17 20 19 18 15 14 14 14 11 10 9 8 9 9 10 10 11 9 10 11 12 10 9 9 8 8 8
77 79 81 82 80 73 63 60 55 50 46 43 40 43 35 28 17 16 17 16 17 15 14 12 10 9 8 8 8 8 9 10 10 11 10 11 11 12 10 10 9 9 8 8
76 72 75 70 56 57 56 51 44 38 36 35 35 32 18 14 15 15 15 13 13 10 9 8 8 8 8 8 9 9 10 10 10 11 11 11 11 11 10 9 8 8 8 9
70 73 64 52 52 51 44 36 30 32 32 27 26 20 13 13 13 13 12 10 10 8 7 7 7 8 8 9 9 9 9 9 10 10 10 10 10 10 8 8 8 8 8 10
50 48 47 44 38 34 31 28 24 22 22 20 17 14 13 12 10 10 9 6 8 8 8 8 8 8 8 8 8 8 8 8 8 9 9 9 8 7 7 7 7 7 8 10
41 33 25 21 19 18 20 20 18 17 17 16 13 11 10 8 8 8 8 9 7 7 7 8 8 8 8 7 7 7 7 7 8 8 8 8 7 6 6 6 7 8 9 10
17 17 17 17 16 15 14 15 15 15 14 13 10 9 7 7 10 8 8 8 8 8 8 8 7 7 7 7 7 7 7 7 7 8 7 6 6 7 7 8 8 9 10 10
17 17 16 15 14 12 12 11 11 12 12 11 10 10 8 8 8 9 9 8 8 8 7 7 7 7 7 7 7 7 7 8 8 7 7 7 8 8 8 9 9 9 9 9
14 14 13 12 11 10 9 10 11 12 11 8 10 9 10 9 8 8 8 8 7 6 6 7 7 7 7 7 7 8 8 8 7 7 8 8 8 9 9 9 8 8 8 8
14 12 11 9 9 9 10 11 10 10 9 9 10 9 9 8 8 7 7 6 6 6 7 7 7 7 7 8 8 8 8 7 7 8 9 9 9 8 7 7 7 7 7 8